Wetterdaten: Samstag, 14.11.2020
Datum Zeit Temp. Aussen Temp. o. S. Temp +5cm Feuchte Auss Luftdruck Regen Sonnenschein Regendauer Solar Windben Empfang
14.11.2020 00:00 13,4 C 12,8 C 12,2 C 93 % 1017,4 hPa 0,0 l/m 0 min 0 min 0 W/m 3,2 km/h (1 Bft) 100,00 %
14.11.2020 00:02 13,4 C 12,8 C 12,2 C 93 % 1017,3 hPa 0,0 l/m 0 min 0 min 0 W/m 6,4 km/h (2 Bft) 97,44 %
14.11.2020 00:04 13,4 C 12,8 C 12,2 C 93 % 1017,4 hPa 0,0 l/m 0 min 0 min 0 W/m 16,1 km/h (3 Bft) 97,87 %
14.11.2020 00:07 13,5 C 12,8 C 12,2 C 93 % 1017,3 hPa 0,0 l/m 0 min 0 min 0 W/m 6,4 km/h (2 Bft) 97,14 %
14.11.2020 00:08 13,5 C 12,8 C 12,2 C 93 % 1017,3 hPa 0,0 l/m 0 min 0 min 0 W/m 12,9 km/h (3 Bft) 100,00 %
14.11.2020 00:10 13,5 C 12,8 C 12,2 C 93 % 1017,4 hPa 0,0 l/m 0 min 0 min 0 W/m 19,3 km/h (3 Bft) 100,00 %
14.11.2020 00:12 13,5 C 13,3 C 12,2 C 93 % 1017,4 hPa 0,0 l/m 0 min 0 min 0 W/m 6,4 km/h (2 Bft) 100,00 %
14.11.2020 00:14 13,5 C 13,3 C 12,2 C 93 % 1017,4 hPa 0,0 l/m 0 min 0 min 0 W/m 19,3 km/h (3 Bft) 97,87 %
14.11.2020 00:16 13,5 C 13,3 C 12,2 C 93 % 1017,4 hPa 0,0 l/m 0 min 0 min 0 W/m 12,9 km/h (3 Bft) 100,00 %
14.11.2020 00:18 13,5 C 13,3 C 12,2 C 93 % 1017,5 hPa 0,0 l/m 0 min 0 min 0 W/m 6,4 km/h (2 Bft) 97,87 %
14.11.2020 00:20 13,5 C 13,3 C 12,2 C 93 % 1017,5 hPa 0,0 l/m 0 min 0 min 0 W/m 12,9 km/h (3 Bft) 100,00 %
14.11.2020 00:22 13,5 C 13,3 C 12,2 C 93 % 1017,5 hPa 0,0 l/m 0 min 0 min 0 W/m 16,1 km/h (3 Bft) 100,00 %
14.11.2020 00:24 13,5 C 13,3 C 12,2 C 93 % 1017,5 hPa 0,0 l/m 0 min 0 min 0 W/m 12,9 km/h (3 Bft) 95,74 %
14.11.2020 00:26 13,5 C 13,3 C 12,2 C 92 % 1017,4 hPa 0,0 l/m 0 min 0 min 0 W/m 3,2 km/h (1 Bft) 97,87 %
14.11.2020 00:28 13,6 C 13,3 C 12,2 C 92 % 1017,5 hPa 0,0 l/m 0 min 0 min 0 W/m 19,3 km/h (3 Bft) 97,83 %
14.11.2020 00:30 13,6 C 13,3 C 12,2 C 92 % 1017,5 hPa 0,0 l/m 0 min 0 min 0 W/m 19,3 km/h (3 Bft) 97,87 %
14.11.2020 00:32 13,6 C 13,3 C 12,2 C 92 % 1017,5 hPa 0,0 l/m 0 min 0 min 0 W/m 3,2 km/h (1 Bft) 97,87 %
14.11.2020 00:34 13,6 C 13,3 C 12,2 C 92 % 1017,4 hPa 0,0 l/m 0 min 0 min 0 W/m 3,2 km/h (1 Bft) 95,74 %
14.11.2020 00:36 13,6 C 12,8 C 12,2 C 92 % 1017,4 hPa 0,0 l/m 0 min 0 min 0 W/m 16,1 km/h (3 Bft) 93,62 %
14.11.2020 00:38 13,6 C 12,8 C 12,2 C 92 % 1017,5 hPa 0,0 l/m 0 min 0 min 0 W/m 16,1 km/h (3 Bft) 93,62 %
14.11.2020 00:40 13,6 C 12,8 C 12,2 C 92 % 1017,5 hPa 0,0 l/m 0 min 0 min 0 W/m 6,4 km/h (2 Bft) 97,83 %
14.11.2020 00:42 13,6 C 12,8 C 12,2 C 92 % 1017,5 hPa 0,0 l/m 0 min 0 min 0 W/m 12,9 km/h (3 Bft) 95,74 %
14.11.2020 00:44 13,6 C 12,8 C 12,2 C 92 % 1017,6 hPa 0,0 l/m 0 min 0 min 0 W/m 16,1 km/h (3 Bft) 95,74 %
14.11.2020 00:46 13,6 C 12,8 C 12,2 C 92 % 1017,6 hPa 0,0 l/m 0 min 0 min 0 W/m 6,4 km/h (2 Bft) 95,74 %
14.11.2020 00:48 13,6 C 12,8 C 12,2 C 92 % 1017,6 hPa 0,0 l/m 0 min 0 min 0 W/m 6,4 km/h (2 Bft) 95,74 %
14.11.2020 00:50 13,6 C 12,8 C 12,2 C 92 % 1017,6 hPa 0,0 l/m 0 min 0 min 0 W/m 6,4 km/h (2 Bft) 95,74 %
14.11.2020 00:52 13,6 C 12,8 C 12,2 C 92 % 1017,6 hPa 0,0 l/m 0 min 0 min 0 W/m 6,4 km/h (2 Bft) 95,65 %
14.11.2020 00:54 13,6 C 12,8 C 12,2 C 92 % 1017,7 hPa 0,0 l/m 0 min 0 min 0 W/m 16,1 km/h (3 Bft) 95,74 %
14.11.2020 00:56 13,6 C 12,8 C 12,2 C 92 % 1017,7 hPa 0,0 l/m 0 min 0 min 0 W/m 19,3 km/h (3 Bft) 93,62 %
14.11.2020 00:58 13,6 C 12,8 C 12,2 C 92 % 1017,6 hPa 0,0 l/m 0 min 0 min 0 W/m 22,5 km/h (4 Bft) 95,74 %
14.11.2020 01:00 13,6 C 12,8 C 12,2 C 92 % 1017,6 hPa 0,0 l/m 0 min 0 min 0 W/m 3,2 km/h (1 Bft) 95,74 %
14.11.2020 01:02 13,6 C 12,8 C 12,2 C 92 % 1017,6 hPa 0,0 l/m 0 min 0 min 0 W/m 6,4 km/h (2 Bft) 95,74 %
14.11.2020 01:04 13,6 C 12,8 C 12,2 C 92 % 1017,6 hPa 0,0 l/m 0 min 0 min 0 W/m 16,1 km/h (3 Bft) 93,48 %
14.11.2020 01:06 13,6 C 12,8 C 12,2 C 92 % 1017,6 hPa 0,0 l/m 0 min 0 min 0 W/m 19,3 km/h (3 Bft) 93,62 %
14.11.2020 01:08 13,6 C 12,8 C 11,7 C 92 % 1017,5 hPa 0,0 l/m 0 min 0 min 0 W/m 6,4 km/h (2 Bft) 95,74 %
14.11.2020 01:10 13,6 C 12,8 C 11,7 C 92 % 1017,5 hPa 0,0 l/m 0 min 0 min 0 W/m 3,2 km/h (1 Bft) 95,74 %
14.11.2020 01:12 13,6 C 12,8 C 11,7 C 92 % 1017,6 hPa 0,0 l/m 0 min 0 min 0 W/m 6,4 km/h (2 Bft) 95,74 %
14.11.2020 01:14 13,5 C 12,8 C 11,7 C 92 % 1017,5 hPa 0,0 l/m 0 min 0 min 0 W/m 12,9 km/h (3 Bft) 97,83 %
14.11.2020 01:16 13,5 C 12,8 C 11,7 C 92 % 1017,5 hPa 0,0 l/m 0 min 0 min 0 W/m 12,9 km/h (3 Bft) 95,74 %
14.11.2020 01:18 13,5 C 12,8 C 11,7 C 92 % 1017,5 hPa 0,0 l/m 0 min 0 min 0 W/m 3,2 km/h (1 Bft) 97,87 %
14.11.2020 01:20 13,5 C 12,8 C 11,7 C 92 % 1017,5 hPa 0,0 l/m 0 min 0 min 0 W/m 6,4 km/h (2 Bft) 97,87 %
14.11.2020 01:22 13,5 C 12,8 C 11,7 C 92 % 1017,5 hPa 0,0 l/m 0 min 0 min 0 W/m 3,2 km/h (1 Bft) 95,74 %
14.11.2020 01:24 13,5 C 12,8 C 11,7 C 92 % 1017,5 hPa 0,0 l/m 0 min 0 min 0 W/m 6,4 km/h (2 Bft) 97,87 %
14.11.2020 01:26 13,5 C 12,8 C 11,7 C 91 % 1017,5 hPa 0,0 l/m 0 min 0 min 0 W/m 12,9 km/h (3 Bft) 97,87 %
14.11.2020 01:28 13,5 C 12,8 C 11,7 C 91 % 1017,5 hPa 0,0 l/m 0 min 0 min 0 W/m 6,4 km/h (2 Bft) 100,00 %
14.11.2020 01:30 13,4 C 12,8 C 11,7 C 91 % 1017,5 hPa 0,0 l/m 0 min 0 min 0 W/m 6,4 km/h (2 Bft) 100,00 %
14.11.2020 01:32 13,4 C 12,8 C 11,7 C 91 % 1017,5 hPa 0,0 l/m 0 min 0 min 0 W/m 0,0 km/h (0 Bft) 100,00 %
14.11.2020 01:34 13,4 C 12,8 C 11,7 C 92 % 1017,5 hPa 0,0 l/m 0 min 0 min 0 W/m 0,0 km/h (0 Bft) 100,00 %
14.11.2020 01:36 13,4 C 12,8 C 11,7 C 92 % 1017,5 hPa 0,0 l/m 0 min 0 min 0 W/m 3,2 km/h (1 Bft) 100,00 %
14.11.2020 01:38 13,4 C 12,8 C 11,7 C 92 % 1017,5 hPa 0,0 l/m 0 min 0 min 0 W/m 12,9 km/h (3 Bft) 100,00 %
14.11.2020 01:40 13,4 C 12,8 C 11,7 C 92 % 1017,5 hPa 0,0 l/m 0 min 0 min 0 W/m 3,2 km/h (1 Bft) 100,00 %
14.11.2020 01:42 13,4 C 12,8 C 11,7 C 92 % 1017,5 hPa 0,0 l/m 0 min 0 min 0 W/m 3,2 km/h (1 Bft) 100,00 %
14.11.2020 01:44 13,4 C 12,8 C 11,7 C 92 % 1017,5 hPa 0,0 l/m 0 min 0 min 0 W/m 0,0 km/h (0 Bft) 100,00 %
14.11.2020 01:46 13,4 C 12,8 C 11,7 C 92 % 1017,5 hPa 0,0 l/m 0 min 0 min 0 W/m 3,2 km/h (1 Bft) 97,87 %
14.11.2020 01:48 13,4 C 12,8 C 11,7 C 92 % 1017,5 hPa 0,0 l/m 0 min 0 min 0 W/m 0,0 km/h (0 Bft) 95,74 %
14.11.2020 01:50 13,4 C 12,8 C 11,7 C 92 % 1017,5 hPa 0,0 l/m 0 min 0 min 0 W/m 12,9 km/h (3 Bft) 97,83 %
14.11.2020 01:52 13,4 C 12,8 C 11,7 C 92 % 1017,5 hPa 0,0 l/m 0 min 0 min 0 W/m 6,4 km/h (2 Bft) 97,87 %
14.11.2020 01:54 13,4 C 12,8 C 11,7 C 92 % 1017,5 hPa 0,0 l/m 0 min 0 min 0 W/m 6,4 km/h (2 Bft) 97,87 %
14.11.2020 01:56 13,3 C 12,8 C 11,7 C 92 % 1017,5 hPa 0,0 l/m 0 min 0 min 0 W/m 3,2 km/h (1 Bft) 97,87 %
14.11.2020 01:58 13,3 C 12,8 C 11,7 C 92 % 1017,6 hPa 0,0 l/m 0 min 0 min 0 W/m 0,0 km/h (0 Bft) 95,74 %
14.11.2020 02:00 13,3 C 12,8 C 11,7 C 92 % 1017,5 hPa 0,0 l/m 0 min 0 min 0 W/m 0,0 km/h (0 Bft) 95,74 %
14.11.2020 02:02 13,3 C 12,2 C 11,7 C 92 % 1017,5 hPa 0,0 l/m 0 min 0 min 0 W/m 3,2 km/h (1 Bft) 97,83 %
14.11.2020 02:04 13,3 C 12,2 C 11,7 C 92 % 1017,5 hPa 0,0 l/m 0 min 0 min 0 W/m 0,0 km/h (0 Bft) 97,87 %
14.11.2020 02:06 13,3 C 12,2 C 11,7 C 92 % 1017,5 hPa 0,0 l/m 0 min 0 min 0 W/m 0,0 km/h (0 Bft) 97,87 %
14.11.2020 02:08 13,3 C 12,2 C 11,7 C 92 % 1017,6 hPa 0,0 l/m 0 min 0 min 0 W/m 0,0 km/h (0 Bft) 97,87 %
14.11.2020 02:10 13,3 C 12,2 C 11,7 C 92 % 1017,5 hPa 0,0 l/m 0 min 0 min 0 W/m 6,4 km/h (2 Bft) 97,87 %
14.11.2020 02:12 13,3 C 12,2 C 11,7 C 92 % 1017,6 hPa 0,0 l/m 0 min 0 min 0 W/m 3,2 km/h (1 Bft) 97,87 %
14.11.2020 02:14 13,3 C 12,2 C 11,7 C 92 % 1017,5 hPa 0,0 l/m 0 min 0 min 0 W/m 6,4 km/h (2 Bft) 97,83 %
14.11.2020 02:16 13,2 C 12,2 C 11,7 C 92 % 1017,5 hPa 0,0 l/m 0 min 0 min 0 W/m 6,4 km/h (2 Bft) 93,62 %
14.11.2020 02:18 13,2 C 12,2 C 11,7 C 92 % 1017,5 hPa 0,0 l/m 0 min 0 min 0 W/m 6,4 km/h (2 Bft) 97,87 %
14.11.2020 02:20 13,2 C 12,2 C 11,7 C 92 % 1017,5 hPa 0,0 l/m 0 min 0 min 0 W/m 16,1 km/h (3 Bft) 97,87 %
14.11.2020 02:22 13,2 C 12,2 C 11,7 C 92 % 1017,5 hPa 0,0 l/m 0 min 0 min 0 W/m 3,2 km/h (1 Bft) 97,87 %
14.11.2020 02:24 13,1 C 12,2 C 11,7 C 92 % 1017,5 hPa 0,0 l/m 0 min 0 min 0 W/m 3,2 km/h (1 Bft) 97,83 %
14.11.2020 02:26 13,1 C 12,2 C 11,1 C 92 % 1017,5 hPa 0,0 l/m 0 min 0 min 0 W/m 3,2 km/h (1 Bft) 95,74 %
14.11.2020 02:28 13,1 C 12,2 C 11,1 C 92 % 1017,5 hPa 0,0 l/m 0 min 0 min 0 W/m 0,0 km/h (0 Bft) 97,87 %
14.11.2020 02:30 13,1 C 12,2 C 11,1 C 92 % 1017,5 hPa 0,0 l/m 0 min 0 min 0 W/m 3,2 km/h (1 Bft) 97,87 %
14.11.2020 02:32 13,1 C 12,2 C 11,1 C 92 % 1017,5 hPa 0,0 l/m 0 min 0 min 0 W/m 0,0 km/h (0 Bft) 97,87 %
14.11.2020 02:34 13,1 C 11,7 C 11,1 C 92 % 1017,4 hPa 0,0 l/m 0 min 0 min 0 W/m 0,0 km/h (0 Bft) 97,87 %
14.11.2020 02:36 13,1 C 11,7 C 11,1 C 92 % 1017,5 hPa 0,0 l/m 0 min 0 min 0 W/m 6,4 km/h (2 Bft) 95,74 %
14.11.2020 02:38 13,0 C 11,7 C 11,1 C 92 % 1017,4 hPa 0,0 l/m 0 min 0 min 0 W/m 3,2 km/h (1 Bft) 97,83 %
14.11.2020 02:40 13,0 C 11,7 C 10,6 C 92 % 1017,4 hPa 0,0 l/m 0 min 0 min 0 W/m 3,2 km/h (1 Bft) 97,87 %
14.11.2020 02:42 13,0 C 11,7 C 10,6 C 92 % 1017,4 hPa 0,0 l/m 0 min 0 min 0 W/m 3,2 km/h (1 Bft) 97,87 %
14.11.2020 02:44 13,0 C 11,7 C 10,6 C 92 % 1017,4 hPa 0,0 l/m 0 min 0 min 0 W/m 0,0 km/h (0 Bft) 97,87 %
14.11.2020 02:46 12,9 C 11,7 C 10,6 C 92 % 1017,4 hPa 0,0 l/m 0 min 0 min 0 W/m 3,2 km/h (1 Bft) 97,87 %
14.11.2020 02:48 12,9 C 11,7 C 10,6 C 92 % 1017,4 hPa 0,0 l/m 0 min 0 min 0 W/m 3,2 km/h (1 Bft) 97,83 %
14.11.2020 02:50 12,9 C 11,7 C 10,6 C 92 % 1017,5 hPa 0,0 l/m 0 min 0 min 0 W/m 0,0 km/h (0 Bft) 100,00 %
14.11.2020 02:52 12,9 C 11,7 C 10,6 C 92 % 1017,5 hPa 0,0 l/m 0 min 0 min 0 W/m 0,0 km/h (0 Bft) 100,00 %
14.11.2020 02:54 12,8 C 11,7 C 10,6 C 92 % 1017,5 hPa 0,0 l/m 0 min 0 min 0 W/m 0,0 km/h (0 Bft) 100,00 %
14.11.2020 02:56 12,8 C 11,7 C 10,6 C 92 % 1017,6 hPa 0,0 l/m 0 min 0 min 0 W/m 0,0 km/h (0 Bft) 97,87 %
14.11.2020 02:58 12,8 C 11,7 C 10,6 C 92 % 1017,5 hPa 0,0 l/m 0 min 0 min 0 W/m 3,2 km/h (1 Bft) 97,87 %
14.11.2020 03:00 12,8 C 11,7 C 11,1 C 92 % 1017,5 hPa 0,0 l/m 0 min 0 min 0 W/m 6,4 km/h (2 Bft) 100,00 %
14.11.2020 03:02 12,7 C 11,7 C 11,1 C 92 % 1017,5 hPa 0,0 l/m 0 min 0 min 0 W/m 6,4 km/h (2 Bft) 100,00 %
14.11.2020 03:04 12,7 C 11,7 C 11,1 C 92 % 1017,5 hPa 0,0 l/m 0 min 0 min 0 W/m 12,9 km/h (3 Bft) 100,00 %
14.11.2020 03:06 12,7 C 11,7 C 11,1 C 92 % 1017,5 hPa 0,0 l/m 0 min 0 min 0 W/m 3,2 km/h (1 Bft) 95,74 %
14.11.2020 03:08 12,7 C 11,7 C 11,1 C 93 % 1017,5 hPa 0,0 l/m 0 min 0 min 0 W/m 12,9 km/h (3 Bft) 97,87 %
14.11.2020 03:10 12,6 C 12,2 C 11,1 C 93 % 1017,5 hPa 0,0 l/m 0 min 0 min 0 W/m 3,2 km/h (1 Bft) 97,87 %
14.11.2020 03:12 12,6 C 11,7 C 11,1 C 93 % 1017,5 hPa 0,0 l/m 0 min 0 min 0 W/m 3,2 km/h (1 Bft) 97,83 %
14.11.2020 03:14 12,6 C 11,7 C 11,1 C 93 % 1017,5 hPa 0,0 l/m 0 min 0 min 0 W/m 6,4 km/h (2 Bft) 95,74 %
14.11.2020 03:16 12,6 C 11,7 C 11,1 C 93 % 1017,4 hPa 0,0 l/m 0 min 0 min 0 W/m 3,2 km/h (1 Bft) 97,87 %
14.11.2020 03:18 12,6 C 11,7 C 11,1 C 93 % 1017,3 hPa 0,0 l/m 0 min 0 min 0 W/m 3,2 km/h (1 Bft) 97,87 %
14.11.2020 03:20 12,6 C 11,7 C 11,1 C 93 % 1017,3 hPa 0,0 l/m 0 min 0 min 0 W/m 0,0 km/h (0 Bft) 95,74 %
14.11.2020 03:22 12,6 C 11,7 C 11,1 C 93 % 1017,3 hPa 0,0 l/m 0 min 0 min 0 W/m 0,0 km/h (0 Bft) 97,83 %
14.11.2020 03:24 12,6 C 11,7 C 11,1 C 93 % 1017,2 hPa 0,0 l/m 0 min 0 min 0 W/m 12,9 km/h (3 Bft) 95,74 %
14.11.2020 03:26 12,5 C 11,7 C 11,1 C 93 % 1017,2 hPa 0,0 l/m 0 min 0 min 0 W/m 6,4 km/h (2 Bft) 97,87 %
14.11.2020 03:28 12,5 C 11,7 C 11,1 C 93 % 1017,2 hPa 0,0 l/m 0 min 0 min 0 W/m 6,4 km/h (2 Bft) 95,74 %
14.11.2020 03:30 12,5 C 11,7 C 10,6 C 93 % 1017,1 hPa 0,0 l/m 0 min 0 min 0 W/m 6,4 km/h (2 Bft) 95,74 %
14.11.2020 03:32 12,5 C 11,7 C 10,6 C 93 % 1017,2 hPa 0,0 l/m 0 min 0 min 0 W/m 12,9 km/h (3 Bft) 93,62 %
14.11.2020 03:34 12,5 C 11,7 C 11,1 C 93 % 1017,2 hPa 0,0 l/m 0 min 0 min 0 W/m 16,1 km/h (3 Bft) 97,83 %
14.11.2020 03:36 12,5 C 11,7 C 11,1 C 93 % 1017,2 hPa 0,0 l/m 0 min 0 min 0 W/m 6,4 km/h (2 Bft) 95,74 %
14.11.2020 03:38 12,5 C 11,7 C 11,1 C 93 % 1017,2 hPa 0,0 l/m 0 min 0 min 0 W/m 6,4 km/h (2 Bft) 95,74 %
14.11.2020 03:40 12,5 C 11,7 C 11,1 C 93 % 1017,2 hPa 0,0 l/m 0 min 0 min 0 W/m 3,2 km/h (1 Bft) 95,74 %
14.11.2020 03:42 12,5 C 11,7 C 11,1 C 93 % 1017,2 hPa 0,0 l/m 0 min 0 min 0 W/m 3,2 km/h (1 Bft) 95,74 %
14.11.2020 03:44 12,4 C 11,7 C 11,1 C 93 % 1017,2 hPa 0,0 l/m 0 min 0 min 0 W/m 3,2 km/h (1 Bft) 97,87 %
14.11.2020 03:46 12,4 C 11,7 C 11,1 C 93 % 1017,2 hPa 0,0 l/m 0 min 0 min 0 W/m 12,9 km/h (3 Bft) 95,65 %
14.11.2020 03:48 12,4 C 11,7 C 11,1 C 93 % 1017,2 hPa 0,0 l/m 0 min 0 min 0 W/m 12,9 km/h (3 Bft) 93,62 %
14.11.2020 03:50 12,4 C 11,7 C 11,1 C 94 % 1017,2 hPa 0,0 l/m 0 min 0 min 0 W/m 12,9 km/h (3 Bft) 95,74 %
14.11.2020 03:52 12,4 C 11,7 C 11,1 C 94 % 1017,2 hPa 0,0 l/m 0 min 0 min 0 W/m 3,2 km/h (1 Bft) 93,62 %
14.11.2020 03:54 12,4 C 11,7 C 11,1 C 94 % 1017,1 hPa 0,0 l/m 0 min 0 min 0 W/m 6,4 km/h (2 Bft) 97,87 %
14.11.2020 03:56 12,4 C 11,7 C 11,1 C 94 % 1017,1 hPa 0,0 l/m 0 min 0 min 0 W/m 12,9 km/h (3 Bft) 97,87 %
14.11.2020 03:58 12,4 C 11,7 C 11,1 C 94 % 1017,1 hPa 0,0 l/m 0 min 0 min 0 W/m 0,0 km/h (0 Bft) 97,83 %
14.11.2020 04:00 12,4 C 11,7 C 11,1 C 94 % 1017,1 hPa 0,0 l/m 0 min 0 min 0 W/m 6,4 km/h (2 Bft) 97,87 %
14.11.2020 04:06 12,4 C 11,7 C 11,1 C 94 % 1017,1 hPa 0,0 l/m 0 min 0 min 0 W/m 6,4 km/h (2 Bft) 100,00 %
14.11.2020 04:08 12,4 C 11,7 C 11,1 C 94 % 1017,1 hPa 0,0 l/m 0 min 0 min 0 W/m 0,0 km/h (0 Bft) 97,87 %
14.11.2020 04:10 12,4 C 11,7 C 11,1 C 94 % 1017,1 hPa 0,0 l/m 0 min 0 min 0 W/m 3,2 km/h (1 Bft) 97,83 %
14.11.2020 04:12 12,4 C 11,7 C 11,1 C 94 % 1017,2 hPa 0,0 l/m 0 min 0 min 0 W/m 0,0 km/h (0 Bft) 97,87 %
14.11.2020 04:14 12,4 C 11,7 C 10,6 C 94 % 1017,2 hPa 0,0 l/m 0 min 0 min 0 W/m 0,0 km/h (0 Bft) 97,87 %
14.11.2020 04:16 12,4 C 11,7 C 10,6 C 94 % 1017,2 hPa 0,0 l/m 0 min 0 min 0 W/m 0,0 km/h (0 Bft) 97,87 %
14.11.2020 04:18 12,4 C 11,7 C 10,6 C 94 % 1017,2 hPa 0,0 l/m 0 min 0 min 0 W/m 0,0 km/h (0 Bft) 97,87 %
14.11.2020 04:20 12,4 C 11,7 C 11,1 C 94 % 1017,2 hPa 0,0 l/m 0 min 0 min 0 W/m 0,0 km/h (0 Bft) 97,87 %
14.11.2020 04:22 12,4 C 11,7 C 11,1 C 94 % 1017,1 hPa 0,0 l/m 0 min 0 min 0 W/m 6,4 km/h (2 Bft) 97,83 %
14.11.2020 04:24 12,4 C 11,7 C 11,1 C 94 % 1017,1 hPa 0,0 l/m 0 min 0 min 0 W/m 6,4 km/h (2 Bft) 95,74 %
14.11.2020 04:26 12,4 C 11,7 C 11,1 C 94 % 1017,1 hPa 0,0 l/m 0 min 0 min 0 W/m 12,9 km/h (3 Bft) 100,00 %
14.11.2020 04:28 12,4 C 11,7 C 11,1 C 94 % 1017,1 hPa 0,0 l/m 0 min 0 min 0 W/m 16,1 km/h (3 Bft) 100,00 %
14.11.2020 04:30 12,4 C 11,7 C 11,1 C 94 % 1017,1 hPa 0,0 l/m 0 min 0 min 0 W/m 16,1 km/h (3 Bft) 100,00 %
14.11.2020 04:32 12,4 C 11,7 C 11,1 C 94 % 1017,1 hPa 0,0 l/m 0 min 0 min 0 W/m 3,2 km/h (1 Bft) 100,00 %
14.11.2020 04:34 12,4 C 11,7 C 11,1 C 94 % 1017,1 hPa 0,0 l/m 0 min 0 min 0 W/m 3,2 km/h (1 Bft) 100,00 %
14.11.2020 04:36 12,4 C 12,2 C 11,1 C 94 % 1017,1 hPa 0,0 l/m 0 min 0 min 0 W/m 12,9 km/h (3 Bft) 100,00 %
14.11.2020 04:38 12,4 C 12,2 C 11,1 C 94 % 1017,1 hPa 0,0 l/m 0 min 0 min 0 W/m 12,9 km/h (3 Bft) 100,00 %
14.11.2020 04:40 12,4 C 12,2 C 11,1 C 94 % 1017,1 hPa 0,0 l/m 0 min 0 min 0 W/m 12,9 km/h (3 Bft) 100,00 %
14.11.2020 04:42 12,4 C 12,2 C 11,1 C 94 % 1017,1 hPa 0,0 l/m 0 min 0 min 0 W/m 12,9 km/h (3 Bft) 97,87 %
14.11.2020 04:44 12,4 C 12,2 C 11,1 C 95 % 1017,1 hPa 0,0 l/m 0 min 0 min 0 W/m 6,4 km/h (2 Bft) 97,83 %
14.11.2020 04:46 12,5 C 12,2 C 11,7 C 95 % 1017,1 hPa 0,0 l/m 0 min 0 min 0 W/m 6,4 km/h (2 Bft) 97,87 %
14.11.2020 04:48 12,5 C 12,2 C 11,7 C 95 % 1017,1 hPa 0,0 l/m 0 min 0 min 0 W/m 6,4 km/h (2 Bft) 100,00 %
14.11.2020 04:50 12,5 C 12,2 C 11,7 C 95 % 1017,1 hPa 0,0 l/m 0 min 0 min 0 W/m 6,4 km/h (2 Bft) 100,00 %
14.11.2020 04:52 12,5 C 12,2 C 11,7 C 95 % 1017,1 hPa 0,0 l/m 0 min 0 min 0 W/m 3,2 km/h (1 Bft) 100,00 %
14.11.2020 04:54 12,5 C 12,2 C 11,7 C 95 % 1017,2 hPa 0,0 l/m 0 min 0 min 0 W/m 3,2 km/h (1 Bft) 100,00 %
14.11.2020 04:56 12,5 C 12,2 C 11,7 C 95 % 1017,1 hPa 0,0 l/m 0 min 0 min 0 W/m 3,2 km/h (1 Bft) 100,00 %
14.11.2020 04:58 12,5 C 12,2 C 11,7 C 95 % 1017,1 hPa 0,0 l/m 0 min 0 min 0 W/m 0,0 km/h (0 Bft) 100,00 %
14.11.2020 05:00 12,5 C 12,2 C 11,7 C 95 % 1017,1 hPa 0,0 l/m 0 min 0 min 0 W/m 3,2 km/h (1 Bft) 100,00 %
14.11.2020 05:02 12,5 C 12,2 C 11,7 C 95 % 1017,1 hPa 0,0 l/m 0 min 0 min 0 W/m 12,9 km/h (3 Bft) 97,92 %
14.11.2020 05:04 12,6 C 12,2 C 11,7 C 94 % 1017,1 hPa 0,0 l/m 0 min 0 min 0 W/m 3,2 km/h (1 Bft) 100,00 %
14.11.2020 05:06 12,6 C 12,2 C 11,7 C 94 % 1017,1 hPa 0,0 l/m 0 min 0 min 0 W/m 6,4 km/h (2 Bft) 97,87 %
14.11.2020 05:08 12,6 C 12,2 C 11,7 C 94 % 1017,0 hPa 0,0 l/m 0 min 0 min 0 W/m 3,2 km/h (1 Bft) 100,00 %
14.11.2020 05:10 12,6 C 12,2 C 11,7 C 94 % 1017,1 hPa 0,0 l/m 0 min 0 min 0 W/m 12,9 km/h (3 Bft) 97,87 %
14.11.2020 05:12 12,6 C 12,2 C 11,7 C 94 % 1017,1 hPa 0,0 l/m 0 min 0 min 0 W/m 12,9 km/h (3 Bft) 100,00 %
14.11.2020 05:14 12,6 C 12,2 C 11,7 C 94 % 1017,1 hPa 0,0 l/m 0 min 0 min 0 W/m 12,9 km/h (3 Bft) 100,00 %
14.11.2020 05:16 12,7 C 12,2 C 11,7 C 94 % 1017,1 hPa 0,0 l/m 0 min 0 min 0 W/m 12,9 km/h (3 Bft) 100,00 %
14.11.2020 05:18 12,7 C 12,2 C 11,7 C 94 % 1017,2 hPa 0,0 l/m 0 min 0 min 0 W/m 3,2 km/h (1 Bft) 95,74 %
14.11.2020 05:20 12,7 C 12,2 C 11,7 C 94 % 1017,2 hPa 0,0 l/m 0 min 0 min 0 W/m 12,9 km/h (3 Bft) 100,00 %
14.11.2020 05:22 12,7 C 12,2 C 11,7 C 94 % 1017,2 hPa 0,0 l/m 0 min 0 min 0 W/m 0,0 km/h (0 Bft) 100,00 %
14.11.2020 05:24 12,8 C 12,2 C 11,7 C 94 % 1017,3 hPa 0,0 l/m 0 min 0 min 0 W/m 16,1 km/h (3 Bft) 100,00 %
14.11.2020 05:26 12,8 C 12,2 C 11,7 C 94 % 1017,3 hPa 0,0 l/m 0 min 0 min 0 W/m 3,2 km/h (1 Bft) 97,50 %
14.11.2020 05:28 12,8 C 12,2 C 11,7 C 94 % 1017,3 hPa 0,0 l/m 0 min 0 min 0 W/m 3,2 km/h (1 Bft) 100,00 %
14.11.2020 05:30 12,8 C 12,2 C 11,7 C 94 % 1017,2 hPa 0,0 l/m 0 min 0 min 0 W/m 6,4 km/h (2 Bft) 97,83 %
14.11.2020 05:32 12,8 C 12,2 C 11,7 C 94 % 1017,2 hPa 0,0 l/m 0 min 0 min 0 W/m 0,0 km/h (0 Bft) 97,87 %
14.11.2020 05:34 12,8 C 12,2 C 11,7 C 94 % 1017,2 hPa 0,0 l/m 0 min 0 min 0 W/m 3,2 km/h (1 Bft) 97,87 %
14.11.2020 05:36 12,8 C 12,2 C 11,7 C 94 % 1017,2 hPa 0,0 l/m 0 min 0 min 0 W/m 12,9 km/h (3 Bft) 97,87 %
14.11.2020 05:38 12,8 C 12,2 C 11,7 C 94 % 1017,2 hPa 0,0 l/m 0 min 0 min 0 W/m 12,9 km/h (3 Bft) 97,87 %
14.11.2020 05:40 12,8 C 12,2 C 11,7 C 94 % 1017,2 hPa 0,0 l/m 0 min 0 min 0 W/m 6,4 km/h (2 Bft) 97,87 %
14.11.2020 05:42 12,8 C 12,2 C 11,7 C 94 % 1017,2 hPa 0,0 l/m 0 min 0 min 0 W/m 0,0 km/h (0 Bft) 95,74 %
14.11.2020 05:44 12,9 C 12,2 C 11,7 C 94 % 1017,1 hPa 0,0 l/m 0 min 0 min 0 W/m 12,9 km/h (3 Bft) 95,65 %
14.11.2020 05:46 12,9 C 12,2 C 11,7 C 94 % 1017,1 hPa 0,0 l/m 0 min 0 min 0 W/m 6,4 km/h (2 Bft) 93,62 %
14.11.2020 05:48 12,9 C 12,2 C 11,7 C 94 % 1017,1 hPa 0,0 l/m 0 min 0 min 0 W/m 16,1 km/h (3 Bft) 95,74 %
14.11.2020 05:50 12,9 C 12,2 C 11,7 C 94 % 1017,1 hPa 0,0 l/m 0 min 0 min 0 W/m 6,4 km/h (2 Bft) 93,62 %
14.11.2020 05:52 12,9 C 12,2 C 11,7 C 94 % 1017,1 hPa 0,0 l/m 0 min 0 min 0 W/m 12,9 km/h (3 Bft) 95,74 %
14.11.2020 05:54 12,9 C 12,2 C 11,7 C 94 % 1017,1 hPa 0,0 l/m 0 min 0 min 0 W/m 6,4 km/h (2 Bft) 93,48 %
14.11.2020 05:56 12,9 C 12,2 C 11,7 C 94 % 1017,1 hPa 0,0 l/m 0 min 0 min 0 W/m 3,2 km/h (1 Bft) 93,62 %
14.11.2020 05:58 12,9 C 12,2 C 11,7 C 94 % 1017,1 hPa 0,0 l/m 0 min 0 min 0 W/m 12,9 km/h (3 Bft) 95,74 %
14.11.2020 06:00 12,9 C 12,2 C 11,7 C 94 % 1017,1 hPa 0,0 l/m 0 min 0 min 0 W/m 3,2 km/h (1 Bft) 95,74 %
14.11.2020 06:02 12,9 C 12,2 C 11,7 C 94 % 1017,0 hPa 0,0 l/m 0 min 0 min 0 W/m 6,4 km/h (2 Bft) 93,62 %
14.11.2020 06:04 12,9 C 12,2 C 11,7 C 94 % 1017,0 hPa 0,0 l/m 0 min 0 min 0 W/m 6,4 km/h (2 Bft) 95,74 %
14.11.2020 06:08 12,9 C 12,2 C 11,7 C 94 % 1017,0 hPa 0,0 l/m 0 min 0 min 0 W/m 3,2 km/h (1 Bft) 94,62 %
14.11.2020 06:10 12,9 C 12,2 C 11,7 C 94 % 1017,1 hPa 0,0 l/m 0 min 0 min 0 W/m 3,2 km/h (1 Bft) 95,74 %
14.11.2020 06:12 12,9 C 12,2 C 11,7 C 94 % 1017,1 hPa 0,0 l/m 0 min 0 min 0 W/m 6,4 km/h (2 Bft) 93,62 %
14.11.2020 06:14 12,9 C 12,2 C 11,7 C 94 % 1017,1 hPa 0,0 l/m 0 min 0 min 0 W/m 0,0 km/h (0 Bft) 95,74 %
14.11.2020 06:16 12,9 C 12,2 C 11,7 C 94 % 1017,2 hPa 0,0 l/m 0 min 0 min 0 W/m 0,0 km/h (0 Bft) 93,62 %
14.11.2020 06:18 12,9 C 12,2 C 11,7 C 94 % 1017,1 hPa 0,0 l/m 0 min 0 min 0 W/m 0,0 km/h (0 Bft) 95,65 %
14.11.2020 06:20 12,9 C 12,2 C 11,7 C 94 % 1017,1 hPa 0,0 l/m 0 min 0 min 0 W/m 6,4 km/h (2 Bft) 95,74 %
14.11.2020 06:22 12,9 C 12,2 C 11,7 C 94 % 1017,1 hPa 0,0 l/m 0 min 0 min 0 W/m 0,0 km/h (0 Bft) 95,74 %
14.11.2020 06:24 12,9 C 12,8 C 11,7 C 94 % 1017,1 hPa 0,0 l/m 0 min 0 min 0 W/m 16,1 km/h (3 Bft) 89,36 %
14.11.2020 06:26 13,0 C 12,2 C 11,7 C 94 % 1017,0 hPa 0,0 l/m 0 min 0 min 0 W/m 3,2 km/h (1 Bft) 95,74 %
14.11.2020 06:28 12,9 C 12,2 C 11,7 C 94 % 1017,0 hPa 0,0 l/m 0 min 0 min 0 W/m 3,2 km/h (1 Bft) 93,62 %
14.11.2020 06:30 12,9 C 12,8 C 11,7 C 94 % 1017,0 hPa 0,0 l/m 0 min 0 min 0 W/m 0,0 km/h (0 Bft) 97,83 %
14.11.2020 06:32 13,0 C 12,8 C 11,7 C 94 % 1017,0 hPa 0,0 l/m 0 min 0 min 0 W/m 6,4 km/h (2 Bft) 97,87 %
14.11.2020 06:34 13,0 C 12,8 C 11,7 C 94 % 1017,0 hPa 0,0 l/m 0 min 0 min 0 W/m 0,0 km/h (0 Bft) 97,87 %
14.11.2020 06:36 13,0 C 12,2 C 11,7 C 94 % 1017,0 hPa 0,0 l/m 0 min 0 min 0 W/m 0,0 km/h (0 Bft) 100,00 %
14.11.2020 06:38 13,0 C 12,2 C 11,7 C 94 % 1017,0 hPa 0,0 l/m 0 min 0 min 0 W/m 3,2 km/h (1 Bft) 95,74 %
14.11.2020 06:40 13,0 C 12,2 C 11,7 C 94 % 1017,1 hPa 0,0 l/m 0 min 0 min 0 W/m 0,0 km/h (0 Bft) 95,74 %
14.11.2020 06:42 13,0 C 12,2 C 11,7 C 94 % 1017,1 hPa 0,0 l/m 0 min 0 min 0 W/m 0,0 km/h (0 Bft) 97,83 %
14.11.2020 06:44 13,0 C 12,2 C 11,7 C 94 % 1017,1 hPa 0,0 l/m 0 min 0 min 0 W/m 0,0 km/h (0 Bft) 97,87 %
14.11.2020 06:46 13,0 C 12,2 C 11,7 C 94 % 1017,1 hPa 0,0 l/m 0 min 0 min 0 W/m 3,2 km/h (1 Bft) 97,87 %
14.11.2020 06:48 13,0 C 12,2 C 11,7 C 94 % 1017,1 hPa 0,0 l/m 0 min 0 min 0 W/m 0,0 km/h (0 Bft) 93,62 %
14.11.2020 06:50 13,0 C 12,2 C 11,7 C 94 % 1017,1 hPa 0,0 l/m 0 min 0 min 0 W/m 0,0 km/h (0 Bft) 97,87 %
14.11.2020 06:52 13,0 C 12,2 C 11,7 C 94 % 1017,1 hPa 0,0 l/m 0 min 0 min 0 W/m 0,0 km/h (0 Bft) 97,83 %
14.11.2020 06:54 13,0 C 12,2 C 11,7 C 94 % 1017,0 hPa 0,0 l/m 0 min 0 min 0 W/m 0,0 km/h (0 Bft) 97,87 %
14.11.2020 06:56 13,0 C 12,2 C 11,7 C 94 % 1017,0 hPa 0,0 l/m 0 min 0 min 0 W/m 0,0 km/h (0 Bft) 97,87 %
14.11.2020 06:58 13,0 C 12,2 C 11,7 C 94 % 1017,0 hPa 0,0 l/m 0 min 0 min 0 W/m 0,0 km/h (0 Bft) 97,87 %
14.11.2020 07:00 13,0 C 12,2 C 11,7 C 94 % 1017,0 hPa 0,0 l/m 0 min 0 min 0 W/m 0,0 km/h (0 Bft) 97,87 %
14.11.2020 07:02 13,0 C 12,2 C 11,1 C 94 % 1017,0 hPa 0,0 l/m 0 min 0 min 0 W/m 0,0 km/h (0 Bft) 97,87 %
14.11.2020 07:04 13,0 C 12,2 C 11,1 C 94 % 1017,0 hPa 0,0 l/m 0 min 0 min 0 W/m 3,2 km/h (1 Bft) 97,83 %
14.11.2020 07:06 13,0 C 12,2 C 11,1 C 94 % 1017,0 hPa 0,0 l/m 0 min 0 min 0 W/m 0,0 km/h (0 Bft) 97,87 %
14.11.2020 07:08 12,9 C 12,2 C 11,1 C 94 % 1017,0 hPa 0,0 l/m 0 min 0 min 0 W/m 0,0 km/h (0 Bft) 95,74 %
14.11.2020 07:10 12,9 C 12,2 C 11,1 C 94 % 1017,0 hPa 0,0 l/m 0 min 0 min 0 W/m 0,0 km/h (0 Bft) 95,74 %
14.11.2020 07:12 12,9 C 12,2 C 11,1 C 93 % 1017,0 hPa 0,0 l/m 0 min 0 min 0 W/m 0,0 km/h (0 Bft) 97,87 %
14.11.2020 07:14 12,9 C 12,2 C 11,1 C 93 % 1017,0 hPa 0,0 l/m 0 min 0 min 0 W/m 0,0 km/h (0 Bft) 97,87 %
14.11.2020 07:16 12,9 C 12,2 C 11,1 C 93 % 1017,0 hPa 0,0 l/m 0 min 0 min 0 W/m 0,0 km/h (0 Bft) 97,83 %
14.11.2020 07:18 12,9 C 12,2 C 11,1 C 93 % 1016,9 hPa 0,0 l/m 0 min 0 min 0 W/m 3,2 km/h (1 Bft) 97,87 %
14.11.2020 07:20 12,9 C 11,7 C 11,1 C 93 % 1017,0 hPa 0,0 l/m 0 min 0 min 0 W/m 3,2 km/h (1 Bft) 97,87 %
14.11.2020 07:22 12,9 C 11,7 C 11,1 C 93 % 1017,0 hPa 0,0 l/m 0 min 0 min 0 W/m 3,2 km/h (1 Bft) 97,87 %
14.11.2020 07:24 12,8 C 11,7 C 11,1 C 93 % 1017,0 hPa 0,0 l/m 0 min 0 min 0 W/m 0,0 km/h (0 Bft) 97,87 %
14.11.2020 07:26 12,8 C 11,7 C 11,1 C 93 % 1017,0 hPa 0,0 l/m 0 min 0 min 0 W/m 0,0 km/h (0 Bft) 97,87 %
14.11.2020 07:28 12,8 C 11,7 C 11,1 C 94 % 1017,1 hPa 0,0 l/m 0 min 0 min 0 W/m 0,0 km/h (0 Bft) 100,00 %
14.11.2020 07:30 12,8 C 11,7 C 11,1 C 94 % 1017,0 hPa 0,0 l/m 0 min 0 min 0 W/m 0,0 km/h (0 Bft) 100,00 %
14.11.2020 07:32 12,8 C 11,7 C 11,1 C 94 % 1017,1 hPa 0,0 l/m 0 min 0 min 0 W/m 0,0 km/h (0 Bft) 100,00 %
14.11.2020 07:34 12,8 C 11,7 C 11,1 C 94 % 1017,0 hPa 0,0 l/m 0 min 0 min 0 W/m 0,0 km/h (0 Bft) 100,00 %
14.11.2020 07:36 12,8 C 11,7 C 11,1 C 94 % 1017,1 hPa 0,0 l/m 0 min 0 min 0 W/m 0,0 km/h (0 Bft) 100,00 %
14.11.2020 07:38 12,7 C 11,7 C 11,1 C 94 % 1017,1 hPa 0,0 l/m 0 min 0 min 0 W/m 0,0 km/h (0 Bft) 98,28 %
14.11.2020 07:40 12,7 C 11,7 C 11,1 C 94 % 1017,0 hPa 0,0 l/m 0 min 0 min 0 W/m 0,0 km/h (0 Bft) 100,00 %
14.11.2020 07:42 12,6 C 11,7 C 11,1 C 94 % 1017,0 hPa 0,0 l/m 0 min 0 min 0 W/m 0,0 km/h (0 Bft) 100,00 %
14.11.2020 07:44 12,6 C 11,7 C 11,1 C 94 % 1017,0 hPa 0,0 l/m 0 min 0 min 0 W/m 0,0 km/h (0 Bft) 100,00 %
14.11.2020 07:46 12,6 C 11,7 C 11,1 C 94 % 1017,0 hPa 0,0 l/m 0 min 0 min 0 W/m 0,0 km/h (0 Bft) 100,00 %
14.11.2020 07:48 12,6 C 11,7 C 10,6 C 94 % 1017,0 hPa 0,0 l/m 0 min 0 min 0 W/m 0,0 km/h (0 Bft) 100,00 %
14.11.2020 07:50 12,6 C 11,7 C 10,6 C 94 % 1017,1 hPa 0,0 l/m 0 min 0 min 0 W/m 0,0 km/h (0 Bft) 100,00 %
14.11.2020 07:52 12,5 C 11,7 C 10,6 C 94 % 1017,0 hPa 0,0 l/m 0 min 0 min 0 W/m 3,2 km/h (1 Bft) 100,00 %
14.11.2020 07:54 12,5 C 11,7 C 10,6 C 94 % 1017,0 hPa 0,0 l/m 0 min 0 min 0 W/m 3,2 km/h (1 Bft) 100,00 %
14.11.2020 07:56 12,5 C 11,7 C 10,6 C 94 % 1017,0 hPa 0,0 l/m 0 min 0 min 0 W/m 3,2 km/h (1 Bft) 100,00 %
14.11.2020 07:58 12,5 C 11,7 C 10,6 C 94 % 1017,1 hPa 0,0 l/m 0 min 0 min 3 W/m 0,0 km/h (0 Bft) 100,00 %
14.11.2020 08:00 12,4 C 11,7 C 10,6 C 94 % 1017,0 hPa 0,0 l/m 0 min 0 min 5 W/m 0,0 km/h (0 Bft) 100,00 %
14.11.2020 08:02 12,4 C 11,7 C 10,6 C 94 % 1017,0 hPa 0,0 l/m 0 min 0 min 5 W/m 0,0 km/h (0 Bft) 97,87 %
14.11.2020 08:04 12,4 C 11,7 C 10,6 C 94 % 1017,1 hPa 0,0 l/m 0 min 0 min 6 W/m 3,2 km/h (1 Bft) 100,00 %
14.11.2020 08:06 12,4 C 11,7 C 10,6 C 94 % 1017,0 hPa 0,0 l/m 0 min 0 min 7 W/m 0,0 km/h (0 Bft) 97,87 %
14.11.2020 08:08 12,3 C 11,7 C 10,6 C 94 % 1017,0 hPa 0,0 l/m 0 min 0 min 9 W/m 6,4 km/h (2 Bft) 100,00 %
14.11.2020 08:10 12,3 C 11,7 C 10,6 C 94 % 1017,0 hPa 0,0 l/m 0 min 0 min 10 W/m 6,4 km/h (2 Bft) 100,00 %
14.11.2020 08:12 12,3 C 11,7 C 10,6 C 94 % 1017,0 hPa 0,0 l/m 0 min 0 min 11 W/m 3,2 km/h (1 Bft) 100,00 %
14.11.2020 08:14 12,3 C 11,7 C 10,6 C 94 % 1017,1 hPa 0,0 l/m 0 min 0 min 12 W/m 3,2 km/h (1 Bft) 97,87 %
14.11.2020 08:16 12,3 C 11,7 C 10,6 C 94 % 1017,1 hPa 0,0 l/m 0 min 0 min 12 W/m 12,9 km/h (3 Bft) 97,83 %
14.11.2020 08:18 12,2 C 11,7 C 10,6 C 94 % 1017,1 hPa 0,0 l/m 0 min 0 min 14 W/m 3,2 km/h (1 Bft) 97,87 %
14.11.2020 08:20 12,2 C 11,7 C 10,6 C 94 % 1017,1 hPa 0,0 l/m 0 min 0 min 14 W/m 3,2 km/h (1 Bft) 100,00 %
14.11.2020 08:22 12,2 C 11,7 C 10,6 C 94 % 1017,1 hPa 0,0 l/m 0 min 0 min 14 W/m 6,4 km/h (2 Bft) 97,87 %
14.11.2020 08:24 12,2 C 11,7 C 10,6 C 94 % 1017,1 hPa 0,0 l/m 0 min 0 min 14 W/m 0,0 km/h (0 Bft) 97,87 %
14.11.2020 08:26 12,1 C 11,7 C 11,1 C 94 % 1017,1 hPa 0,0 l/m 0 min 0 min 13 W/m 3,2 km/h (1 Bft) 97,83 %
14.11.2020 08:28 12,1 C 11,7 C 11,1 C 94 % 1017,2 hPa 0,0 l/m 0 min 0 min 12 W/m 0,0 km/h (0 Bft) 95,74 %
14.11.2020 08:30 12,1 C 11,7 C 10,6 C 94 % 1017,1 hPa 0,0 l/m 0 min 0 min 12 W/m 0,0 km/h (0 Bft) 97,96 %
14.11.2020 08:32 12,1 C 11,7 C 10,6 C 95 % 1017,1 hPa 0,0 l/m 0 min 0 min 12 W/m 3,2 km/h (1 Bft) 97,87 %
14.11.2020 08:34 12,1 C 11,7 C 11,1 C 95 % 1017,1 hPa 0,0 l/m 0 min 0 min 12 W/m 3,2 km/h (1 Bft) 97,87 %
14.11.2020 08:36 12,1 C 11,7 C 11,1 C 95 % 1017,2 hPa 0,0 l/m 0 min 0 min 14 W/m 0,0 km/h (0 Bft) 97,83 %
14.11.2020 08:38 12,1 C 11,7 C 11,1 C 95 % 1017,2 hPa 0,0 l/m 0 min 0 min 16 W/m 3,2 km/h (1 Bft) 95,74 %
14.11.2020 08:40 12,1 C 11,7 C 11,1 C 95 % 1017,2 hPa 0,0 l/m 0 min 0 min 19 W/m 0,0 km/h (0 Bft) 95,74 %
14.11.2020 08:42 12,1 C 11,7 C 11,1 C 95 % 1017,3 hPa 0,0 l/m 0 min 0 min 21 W/m 3,2 km/h (1 Bft) 97,87 %
14.11.2020 08:44 12,1 C 11,7 C 11,1 C 95 % 1017,2 hPa 0,0 l/m 0 min 0 min 22 W/m 3,2 km/h (1 Bft) 93,62 %
14.11.2020 08:46 12,1 C 11,7 C 11,1 C 95 % 1017,3 hPa 0,0 l/m 0 min 0 min 24 W/m 0,0 km/h (0 Bft) 97,87 %
14.11.2020 08:48 12,1 C 11,7 C 11,1 C 95 % 1017,3 hPa 0,0 l/m 0 min 0 min 25 W/m 0,0 km/h (0 Bft) 97,83 %
14.11.2020 08:50 12,1 C 11,7 C 11,1 C 95 % 1017,3 hPa 0,0 l/m 0 min 0 min 25 W/m 3,2 km/h (1 Bft) 97,87 %
14.11.2020 08:52 12,1 C 11,7 C 11,1 C 95 % 1017,3 hPa 0,0 l/m 0 min 0 min 25 W/m 3,2 km/h (1 Bft) 97,87 %
14.11.2020 08:54 12,2 C 11,7 C 11,1 C 95 % 1017,3 hPa 0,0 l/m 0 min 0 min 25 W/m 12,9 km/h (3 Bft) 97,87 %
14.11.2020 08:56 12,2 C 11,7 C 11,1 C 95 % 1017,3 hPa 0,0 l/m 0 min 0 min 25 W/m 12,9 km/h (3 Bft) 97,87 %
14.11.2020 08:58 12,2 C 11,7 C 11,1 C 95 % 1017,3 hPa 0,0 l/m 0 min 0 min 25 W/m 6,4 km/h (2 Bft) 97,87 %
14.11.2020 09:00 12,2 C 11,7 C 11,1 C 95 % 1017,3 hPa 0,0 l/m 0 min 0 min 25 W/m 12,9 km/h (3 Bft) 97,83 %
14.11.2020 09:02 12,2 C 11,7 C 11,1 C 95 % 1017,3 hPa 0,0 l/m 0 min 0 min 26 W/m 3,2 km/h (1 Bft) 95,74 %
14.11.2020 09:04 12,2 C 11,7 C 11,1 C 95 % 1017,3 hPa 0,0 l/m 0 min 0 min 27 W/m 3,2 km/h (1 Bft) 97,87 %
14.11.2020 09:06 12,2 C 11,7 C 11,1 C 95 % 1017,4 hPa 0,0 l/m 0 min 0 min 28 W/m 12,9 km/h (3 Bft) 95,74 %
14.11.2020 09:08 12,2 C 11,7 C 11,1 C 95 % 1017,3 hPa 0,0 l/m 0 min 0 min 28 W/m 3,2 km/h (1 Bft) 97,87 %
14.11.2020 09:10 12,2 C 11,7 C 11,1 C 95 % 1017,3 hPa 0,0 l/m 0 min 0 min 32 W/m 12,9 km/h (3 Bft) 95,74 %
14.11.2020 09:12 12,2 C 11,7 C 11,1 C 95 % 1017,3 hPa 0,0 l/m 0 min 0 min 34 W/m 6,4 km/h (2 Bft) 97,83 %
14.11.2020 09:14 12,3 C 11,7 C 11,1 C 95 % 1017,2 hPa 0,0 l/m 0 min 0 min 38 W/m 3,2 km/h (1 Bft) 97,87 %
14.11.2020 09:16 12,3 C 11,7 C 11,1 C 95 % 1017,1 hPa 0,0 l/m 0 min 0 min 38 W/m 3,2 km/h (1 Bft) 97,87 %
14.11.2020 09:18 12,3 C 11,7 C 11,1 C 95 % 1017,1 hPa 0,0 l/m 0 min 0 min 37 W/m 0,0 km/h (0 Bft) 97,87 %
14.11.2020 09:20 12,3 C 12,2 C 11,1 C 95 % 1017,2 hPa 0,0 l/m 0 min 0 min 40 W/m 0,0 km/h (0 Bft) 95,74 %
14.11.2020 09:22 12,3 C 12,2 C 11,1 C 95 % 1017,2 hPa 0,0 l/m 0 min 0 min 41 W/m 6,4 km/h (2 Bft) 91,49 %
14.11.2020 09:24 12,3 C 12,2 C 11,7 C 95 % 1017,2 hPa 0,0 l/m 0 min 0 min 40 W/m 6,4 km/h (2 Bft) 97,83 %
14.11.2020 09:26 12,3 C 12,2 C 11,7 C 95 % 1017,2 hPa 0,0 l/m 0 min 0 min 40 W/m 12,9 km/h (3 Bft) 95,74 %
14.11.2020 09:28 12,3 C 12,2 C 11,7 C 95 % 1017,3 hPa 0,0 l/m 0 min 0 min 40 W/m 3,2 km/h (1 Bft) 97,87 %
14.11.2020 09:30 12,3 C 12,2 C 11,7 C 95 % 1017,2 hPa 0,0 l/m 0 min 0 min 40 W/m 12,9 km/h (3 Bft) 95,74 %
14.11.2020 09:32 12,3 C 12,2 C 11,7 C 95 % 1017,2 hPa 0,0 l/m 0 min 0 min 39 W/m 3,2 km/h (1 Bft) 97,87 %
14.11.2020 09:34 12,3 C 12,2 C 11,7 C 95 % 1017,2 hPa 0,0 l/m 0 min 0 min 39 W/m 0,0 km/h (0 Bft) 97,87 %
14.11.2020 09:36 12,4 C 12,2 C 11,7 C 95 % 1017,3 hPa 0,0 l/m 0 min 0 min 39 W/m 6,4 km/h (2 Bft) 97,83 %
14.11.2020 09:38 12,4 C 12,2 C 11,7 C 95 % 1017,3 hPa 0,0 l/m 0 min 0 min 40 W/m 16,1 km/h (3 Bft) 95,74 %
14.11.2020 09:40 12,4 C 12,2 C 11,7 C 95 % 1017,3 hPa 0,0 l/m 0 min 0 min 40 W/m 3,2 km/h (1 Bft) 95,74 %
14.11.2020 09:42 12,4 C 12,2 C 11,7 C 95 % 1017,3 hPa 0,0 l/m 0 min 0 min 43 W/m 3,2 km/h (1 Bft) 95,74 %
14.11.2020 09:44 12,4 C 12,2 C 11,7 C 95 % 1017,3 hPa 0,0 l/m 0 min 0 min 49 W/m 3,2 km/h (1 Bft) 95,74 %
14.11.2020 09:46 12,4 C 12,2 C 11,7 C 95 % 1017,3 hPa 0,0 l/m 0 min 0 min 54 W/m 6,4 km/h (2 Bft) 95,65 %
14.11.2020 09:48 12,4 C 12,2 C 11,7 C 95 % 1017,3 hPa 0,0 l/m 0 min 0 min 57 W/m 3,2 km/h (1 Bft) 95,74 %
14.11.2020 09:50 12,4 C 12,2 C 11,7 C 95 % 1017,3 hPa 0,0 l/m 0 min 0 min 61 W/m 12,9 km/h (3 Bft) 95,74 %
14.11.2020 09:52 12,4 C 12,2 C 11,7 C 95 % 1017,2 hPa 0,0 l/m 0 min 0 min 60 W/m 6,4 km/h (2 Bft) 96,00 %
14.11.2020 09:54 12,5 C 12,2 C 11,7 C 95 % 1017,2 hPa 0,0 l/m 0 min 0 min 54 W/m 3,2 km/h (1 Bft) 91,49 %
14.11.2020 09:56 12,5 C 12,8 C 11,7 C 95 % 1017,2 hPa 0,0 l/m 0 min 0 min 55 W/m 0,0 km/h (0 Bft) 95,74 %
14.11.2020 09:58 12,5 C 12,8 C 11,7 C 95 % 1017,2 hPa 0,0 l/m 0 min 0 min 62 W/m 3,2 km/h (1 Bft) 95,65 %
14.11.2020 10:00 12,5 C 12,8 C 11,7 C 94 % 1017,2 hPa 0,0 l/m 0 min 0 min 68 W/m 6,4 km/h (2 Bft) 95,74 %
14.11.2020 10:02 12,5 C 12,8 C 12,2 C 94 % 1017,2 hPa 0,0 l/m 0 min 0 min 79 W/m 0,0 km/h (0 Bft) 91,49 %
14.11.2020 10:04 12,6 C 12,8 C 12,2 C 94 % 1017,1 hPa 0,0 l/m 0 min 0 min 87 W/m 3,2 km/h (1 Bft) 95,74 %
14.11.2020 10:06 12,6 C 12,8 C 12,2 C 94 % 1017,2 hPa 0,0 l/m 0 min 0 min 95 W/m 12,9 km/h (3 Bft) 95,74 %
14.11.2020 10:08 12,6 C 13,3 C 12,2 C 94 % 1017,2 hPa 0,0 l/m 0 min 0 min 99 W/m 12,9 km/h (3 Bft) 93,62 %
14.11.2020 10:10 12,7 C 13,3 C 12,2 C 94 % 1017,2 hPa 0,0 l/m 0 min 0 min 100 W/m 19,3 km/h (3 Bft) 97,83 %
14.11.2020 10:12 12,8 C 13,3 C 12,8 C 94 % 1017,1 hPa 0,0 l/m 0 min 0 min 98 W/m 12,9 km/h (3 Bft) 93,62 %
14.11.2020 10:14 12,9 C 13,3 C 12,8 C 94 % 1017,2 hPa 0,0 l/m 0 min 0 min 95 W/m 16,1 km/h (3 Bft) 97,87 %
14.11.2020 10:16 12,9 C 13,3 C 12,8 C 94 % 1017,1 hPa 0,0 l/m 0 min 0 min 95 W/m 12,9 km/h (3 Bft) 97,87 %
14.11.2020 10:18 13,0 C 13,3 C 12,8 C 94 % 1017,1 hPa 0,0 l/m 0 min 0 min 98 W/m 6,4 km/h (2 Bft) 95,74 %
14.11.2020 10:20 13,0 C 13,3 C 12,8 C 94 % 1017,1 hPa 0,0 l/m 0 min 0 min 101 W/m 3,2 km/h (1 Bft) 97,83 %
14.11.2020 10:22 13,1 C 13,9 C 12,8 C 94 % 1017,1 hPa 0,0 l/m 0 min 0 min 99 W/m 12,9 km/h (3 Bft) 95,74 %
14.11.2020 10:24 13,1 C 13,9 C 12,8 C 94 % 1017,1 hPa 0,0 l/m 0 min 0 min 97 W/m 16,1 km/h (3 Bft) 97,87 %
14.11.2020 10:26 13,2 C 13,9 C 12,8 C 94 % 1017,1 hPa 0,0 l/m 0 min 0 min 97 W/m 16,1 km/h (3 Bft) 95,74 %
14.11.2020 10:28 13,3 C 13,9 C 12,8 C 93 % 1017,1 hPa 0,0 l/m 0 min 0 min 94 W/m 6,4 km/h (2 Bft) 100,00 %
14.11.2020 10:30 13,3 C 13,9 C 12,8 C 93 % 1017,1 hPa 0,0 l/m 0 min 0 min 92 W/m 9,7 km/h (2 Bft) 100,00 %
14.11.2020 10:32 13,3 C 13,9 C 12,8 C 93 % 1017,1 hPa 0,0 l/m 0 min 0 min 90 W/m 0,0 km/h (0 Bft) 100,00 %
14.11.2020 10:34 13,4 C 13,9 C 13,4 C 93 % 1017,1 hPa 0,0 l/m 0 min 0 min 88 W/m 6,4 km/h (2 Bft) 100,00 %
14.11.2020 10:36 13,4 C 13,9 C 12,8 C 93 % 1017,1 hPa 0,0 l/m 0 min 0 min 85 W/m 3,2 km/h (1 Bft) 97,83 %
14.11.2020 10:38 13,4 C 13,9 C 12,8 C 93 % 1017,1 hPa 0,0 l/m 0 min 0 min 83 W/m 12,9 km/h (3 Bft) 97,87 %
14.11.2020 10:40 13,5 C 13,9 C 13,4 C 92 % 1017,1 hPa 0,0 l/m 0 min 0 min 83 W/m 3,2 km/h (1 Bft) 100,00 %
14.11.2020 10:42 13,5 C 13,9 C 13,4 C 92 % 1017,2 hPa 0,0 l/m 0 min 0 min 84 W/m 12,9 km/h (3 Bft) 97,87 %
14.11.2020 10:44 13,5 C 13,9 C 13,4 C 92 % 1017,1 hPa 0,0 l/m 0 min 0 min 86 W/m 16,1 km/h (3 Bft) 100,00 %
14.11.2020 10:46 13,5 C 13,9 C 13,4 C 92 % 1017,2 hPa 0,0 l/m 0 min 0 min 89 W/m 12,9 km/h (3 Bft) 97,83 %
14.11.2020 10:48 13,5 C 13,9 C 13,4 C 92 % 1017,2 hPa 0,0 l/m 0 min 0 min 87 W/m 12,9 km/h (3 Bft) 100,00 %
14.11.2020 10:50 13,6 C 13,9 C 13,4 C 92 % 1017,1 hPa 0,0 l/m 0 min 0 min 81 W/m 6,4 km/h (2 Bft) 100,00 %
14.11.2020 10:52 13,6 C 13,9 C 13,4 C 92 % 1017,1 hPa 0,0 l/m 0 min 0 min 82 W/m 6,4 km/h (2 Bft) 100,00 %
14.11.2020 10:54 13,6 C 13,9 C 13,4 C 92 % 1017,1 hPa 0,0 l/m 0 min 0 min 85 W/m 6,4 km/h (2 Bft) 100,00 %
14.11.2020 10:56 13,6 C 13,9 C 13,4 C 91 % 1017,0 hPa 0,0 l/m 0 min 0 min 79 W/m 6,4 km/h (2 Bft) 100,00 %
14.11.2020 10:58 13,7 C 13,9 C 13,4 C 91 % 1017,1 hPa 0,0 l/m 0 min 0 min 82 W/m 6,4 km/h (2 Bft) 100,00 %
14.11.2020 11:00 13,7 C 13,9 C 13,4 C 91 % 1017,1 hPa 0,0 l/m 0 min 0 min 93 W/m 16,1 km/h (3 Bft) 97,87 %
14.11.2020 11:02 13,8 C 13,9 C 13,4 C 91 % 1017,1 hPa 0,0 l/m 0 min 0 min 106 W/m 3,2 km/h (1 Bft) 95,83 %
14.11.2020 11:04 13,8 C 13,9 C 13,4 C 91 % 1017,1 hPa 0,0 l/m 0 min 0 min 115 W/m 12,9 km/h (3 Bft) 97,87 %
14.11.2020 11:06 13,8 C 14,4 C 13,4 C 91 % 1017,1 hPa 0,0 l/m 0 min 0 min 120 W/m 12,9 km/h (3 Bft) 97,87 %
14.11.2020 11:08 13,8 C 14,4 C 13,4 C 90 % 1017,1 hPa 0,0 l/m 0 min 0 min 124 W/m 6,4 km/h (2 Bft) 95,74 %
14.11.2020 11:10 13,9 C 14,4 C 13,4 C 90 % 1017,0 hPa 0,0 l/m 0 min 0 min 153 W/m 6,4 km/h (2 Bft) 97,83 %
14.11.2020 11:12 13,9 C 15,0 C 13,4 C 90 % 1017,0 hPa 0,0 l/m 0 min 0 min 151 W/m 6,4 km/h (2 Bft) 97,87 %
14.11.2020 11:14 13,9 C 14,4 C 13,9 C 90 % 1017,0 hPa 0,0 l/m 0 min 0 min 129 W/m 3,2 km/h (1 Bft) 97,87 %
14.11.2020 11:16 14,0 C 15,0 C 13,9 C 90 % 1016,9 hPa 0,0 l/m 0 min 0 min 133 W/m 3,2 km/h (1 Bft) 97,87 %
14.11.2020 11:18 14,0 C 15,0 C 13,9 C 90 % 1017,0 hPa 0,0 l/m 0 min 0 min 143 W/m 0,0 km/h (0 Bft) 97,87 %
14.11.2020 11:20 14,0 C 15,6 C 13,9 C 89 % 1016,9 hPa 0,0 l/m 2 min 0 min 206 W/m 19,3 km/h (3 Bft) 95,74 %
14.11.2020 11:22 14,1 C 15,6 C 13,9 C 89 % 1016,9 hPa 0,0 l/m 2 min 0 min 201 W/m 19,3 km/h (3 Bft) 95,65 %
14.11.2020 11:24 14,2 C 15,6 C 14,5 C 89 % 1016,9 hPa 0,0 l/m 2 min 0 min 174 W/m 12,9 km/h (3 Bft) 95,74 %
14.11.2020 11:26 14,2 C 15,0 C 13,9 C 88 % 1016,8 hPa 0,0 l/m 0 min 0 min 114 W/m 22,5 km/h (4 Bft) 97,87 %
14.11.2020 11:28 14,2 C 14,4 C 13,9 C 88 % 1016,8 hPa 0,0 l/m 0 min 0 min 117 W/m 22,5 km/h (4 Bft) 97,87 %
14.11.2020 11:30 14,2 C 14,4 C 13,9 C 87 % 1016,7 hPa 0,0 l/m 0 min 0 min 116 W/m 12,9 km/h (3 Bft) 97,87 %
14.11.2020 11:32 14,3 C 15,0 C 13,9 C 87 % 1016,7 hPa 0,0 l/m 0 min 0 min 124 W/m 16,1 km/h (3 Bft) 97,87 %
14.11.2020 11:34 14,3 C 14,4 C 13,9 C 87 % 1016,7 hPa 0,0 l/m 0 min 0 min 127 W/m 16,1 km/h (3 Bft) 97,96 %
14.11.2020 11:36 14,4 C 14,4 C 13,9 C 86 % 1016,7 hPa 0,0 l/m 0 min 0 min 119 W/m 16,1 km/h (3 Bft) 95,74 %
14.11.2020 11:38 14,4 C 14,4 C 13,9 C 86 % 1016,7 hPa 0,0 l/m 0 min 0 min 116 W/m 25,7 km/h (4 Bft) 100,00 %
14.11.2020 11:40 14,5 C 14,4 C 13,9 C 86 % 1016,7 hPa 0,0 l/m 0 min 0 min 139 W/m 22,5 km/h (4 Bft) 100,00 %
14.11.2020 11:42 14,5 C 15,0 C 14,5 C 85 % 1016,7 hPa 0,0 l/m 0 min 0 min 163 W/m 16,1 km/h (3 Bft) 100,00 %
14.11.2020 11:44 14,5 C 15,0 C 14,5 C 85 % 1016,7 hPa 0,0 l/m 0 min 0 min 139 W/m 32,2 km/h (5 Bft) 100,00 %
14.11.2020 11:46 14,6 C 15,0 C 14,5 C 85 % 1016,6 hPa 0,0 l/m 0 min 0 min 153 W/m 19,3 km/h (3 Bft) 97,87 %
14.11.2020 11:48 14,6 C 15,6 C 15,0 C 85 % 1016,6 hPa 0,0 l/m 2 min 0 min 237 W/m 29,0 km/h (5 Bft) 100,00 %
14.11.2020 11:50 14,7 C 16,1 C 15,6 C 84 % 1016,6 hPa 0,0 l/m 2 min 0 min 246 W/m 19,3 km/h (3 Bft) 100,00 %
14.11.2020 11:52 14,8 C 16,1 C 15,6 C 84 % 1016,5 hPa 0,0 l/m 2 min 0 min 190 W/m 6,4 km/h (2 Bft) 95,74 %
14.11.2020 11:54 14,8 C 16,1 C 15,6 C 84 % 1016,5 hPa 0,0 l/m 2 min 0 min 174 W/m 16,1 km/h (3 Bft) 97,83 %
14.11.2020 11:56 14,9 C 16,1 C 15,6 C 84 % 1016,5 hPa 0,0 l/m 2 min 0 min 190 W/m 16,1 km/h (3 Bft) 100,00 %
14.11.2020 11:58 14,9 C 16,1 C 15,6 C 84 % 1016,4 hPa 0,0 l/m 2 min 0 min 181 W/m 19,3 km/h (3 Bft) 100,00 %
14.11.2020 12:00 14,9 C 15,6 C 15,0 C 84 % 1016,4 hPa 0,0 l/m 2 min 0 min 181 W/m 25,7 km/h (4 Bft) 97,87 %
14.11.2020 12:02 15,0 C 15,6 C 15,6 C 84 % 1016,4 hPa 0,0 l/m 2 min 0 min 189 W/m 19,3 km/h (3 Bft) 97,87 %
14.11.2020 12:04 15,0 C 16,1 C 15,6 C 84 % 1016,4 hPa 0,0 l/m 2 min 0 min 209 W/m 16,1 km/h (3 Bft) 100,00 %
14.11.2020 12:08 15,1 C 17,2 C 16,7 C 83 % 1016,4 hPa 0,0 l/m 4 min 0 min 263 W/m 19,3 km/h (3 Bft) 100,00 %
14.11.2020 12:10 15,1 C 17,2 C 17,2 C 83 % 1016,4 hPa 0,0 l/m 2 min 0 min 282 W/m 22,5 km/h (4 Bft) 100,00 %
14.11.2020 12:12 15,2 C 17,2 C 17,2 C 83 % 1016,4 hPa 0,0 l/m 2 min 0 min 279 W/m 19,3 km/h (3 Bft) 97,87 %
14.11.2020 12:14 15,3 C 16,7 C 16,7 C 83 % 1016,3 hPa 0,0 l/m 0 min 0 min 159 W/m 19,3 km/h (3 Bft) 100,00 %
14.11.2020 12:16 15,3 C 16,1 C 16,1 C 83 % 1016,3 hPa 0,0 l/m 0 min 0 min 150 W/m 22,5 km/h (4 Bft) 100,00 %
14.11.2020 12:18 15,3 C 16,7 C 16,1 C 82 % 1016,3 hPa 0,0 l/m 2 min 0 min 204 W/m 16,1 km/h (3 Bft) 100,00 %
14.11.2020 12:20 15,4 C 16,7 C 16,1 C 82 % 1016,2 hPa 0,0 l/m 2 min 0 min 233 W/m 25,7 km/h (4 Bft) 100,00 %
14.11.2020 12:22 15,4 C 16,7 C 16,1 C 82 % 1016,2 hPa 0,0 l/m 2 min 0 min 243 W/m 19,3 km/h (3 Bft) 97,87 %
14.11.2020 12:24 15,4 C 16,7 C 16,1 C 82 % 1016,1 hPa 0,0 l/m 2 min 0 min 223 W/m 25,7 km/h (4 Bft) 97,87 %
14.11.2020 12:26 15,4 C 16,1 C 15,6 C 81 % 1016,1 hPa 0,0 l/m 0 min 0 min 170 W/m 19,3 km/h (3 Bft) 97,87 %
14.11.2020 12:28 15,5 C 16,1 C 15,6 C 81 % 1016,1 hPa 0,0 l/m 0 min 0 min 165 W/m 32,2 km/h (5 Bft) 97,83 %
14.11.2020 12:30 15,5 C 15,6 C 15,0 C 81 % 1016,0 hPa 0,0 l/m 0 min 0 min 164 W/m 35,4 km/h (5 Bft) 97,87 %
14.11.2020 12:32 15,5 C 15,6 C 15,0 C 81 % 1016,1 hPa 0,0 l/m 0 min 0 min 159 W/m 25,7 km/h (4 Bft) 97,87 %
14.11.2020 12:34 15,5 C 16,1 C 15,0 C 80 % 1016,1 hPa 0,0 l/m 0 min 0 min 170 W/m 22,5 km/h (4 Bft) 97,87 %
14.11.2020 12:36 15,5 C 16,1 C 15,0 C 80 % 1016,1 hPa 0,0 l/m 2 min 0 min 184 W/m 38,6 km/h (5 Bft) 97,87 %
14.11.2020 12:38 15,5 C 15,6 C 15,0 C 80 % 1016,1 hPa 0,0 l/m 2 min 0 min 182 W/m 25,7 km/h (4 Bft) 95,74 %
14.11.2020 12:40 15,5 C 16,1 C 15,6 C 80 % 1016,1 hPa 0,0 l/m 2 min 0 min 209 W/m 25,7 km/h (4 Bft) 97,83 %
14.11.2020 12:42 15,5 C 16,7 C 16,1 C 80 % 1016,1 hPa 0,0 l/m 2 min 0 min 261 W/m 25,7 km/h (4 Bft) 93,62 %
14.11.2020 12:44 15,5 C 16,1 C 15,6 C 80 % 1016,1 hPa 0,0 l/m 2 min 0 min 213 W/m 29,0 km/h (5 Bft) 95,74 %
14.11.2020 12:46 15,5 C 16,1 C 15,6 C 80 % 1016,1 hPa 0,0 l/m 0 min 0 min 170 W/m 25,7 km/h (4 Bft) 97,87 %
14.11.2020 12:48 15,5 C 16,1 C 15,6 C 80 % 1016,1 hPa 0,0 l/m 2 min 0 min 218 W/m 38,6 km/h (5 Bft) 95,74 %
14.11.2020 12:50 15,5 C 15,6 C 15,0 C 80 % 1016,0 hPa 0,0 l/m 2 min 0 min 184 W/m 35,4 km/h (5 Bft) 97,87 %
14.11.2020 12:52 15,5 C 16,1 C 15,6 C 80 % 1016,0 hPa 0,0 l/m 2 min 0 min 193 W/m 35,4 km/h (5 Bft) 95,65 %
14.11.2020 12:54 15,6 C 16,1 C 15,6 C 79 % 1015,9 hPa 0,0 l/m 0 min 0 min 157 W/m 25,7 km/h (4 Bft) 97,87 %
14.11.2020 12:56 15,5 C 15,6 C 15,0 C 79 % 1015,9 hPa 0,0 l/m 2 min 0 min 172 W/m 35,4 km/h (5 Bft) 97,87 %
14.11.2020 12:58 15,6 C 16,7 C 16,1 C 79 % 1015,8 hPa 0,0 l/m 2 min 0 min 232 W/m 22,5 km/h (4 Bft) 97,87 %
14.11.2020 13:00 15,6 C 16,7 C 16,7 C 80 % 1015,8 hPa 0,0 l/m 2 min 0 min 270 W/m 22,5 km/h (4 Bft) 95,74 %
14.11.2020 13:02 15,6 C 17,2 C 16,7 C 79 % 1015,7 hPa 0,0 l/m 2 min 0 min 272 W/m 22,5 km/h (4 Bft) 95,74 %
14.11.2020 13:04 15,6 C 16,7 C 16,1 C 79 % 1015,7 hPa 0,0 l/m 2 min 0 min 216 W/m 22,5 km/h (4 Bft) 95,65 %
14.11.2020 13:06 15,7 C 16,7 C 16,1 C 79 % 1015,7 hPa 0,0 l/m 2 min 0 min 239 W/m 38,6 km/h (5 Bft) 93,62 %
14.11.2020 13:08 15,7 C 17,2 C 16,7 C 79 % 1015,8 hPa 0,0 l/m 2 min 0 min 242 W/m 22,5 km/h (4 Bft) 93,62 %
14.11.2020 13:10 15,8 C 17,8 C 17,8 C 79 % 1015,7 hPa 0,0 l/m 2 min 0 min 199 W/m 16,1 km/h (3 Bft) 97,87 %
14.11.2020 13:12 15,8 C 17,8 C 17,8 C 79 % 1015,6 hPa 0,0 l/m 2 min 0 min 294 W/m 22,5 km/h (4 Bft) 95,74 %
14.11.2020 13:14 15,8 C 17,2 C 17,2 C 79 % 1015,7 hPa 0,0 l/m 2 min 0 min 201 W/m 32,2 km/h (5 Bft) 97,87 %
14.11.2020 13:16 15,9 C 17,2 C 17,2 C 79 % 1015,7 hPa 0,0 l/m 2 min 0 min 254 W/m 25,7 km/h (4 Bft) 97,83 %
14.11.2020 13:18 15,9 C 17,2 C 17,8 C 79 % 1015,7 hPa 0,0 l/m 2 min 0 min 266 W/m 35,4 km/h (5 Bft) 93,62 %
14.11.2020 13:20 15,9 C 18,3 C 18,4 C 79 % 1015,6 hPa 0,0 l/m 2 min 0 min 283 W/m 12,9 km/h (3 Bft) 95,74 %
14.11.2020 13:22 15,9 C 18,9 C 18,9 C 78 % 1015,6 hPa 0,0 l/m 2 min 0 min 334 W/m 32,2 km/h (5 Bft) 91,49 %
14.11.2020 13:24 16,0 C 18,3 C 18,9 C 78 % 1015,6 hPa 0,0 l/m 2 min 0 min 321 W/m 25,7 km/h (4 Bft) 95,74 %
14.11.2020 13:26 16,0 C 17,8 C 18,4 C 78 % 1015,6 hPa 0,0 l/m 2 min 0 min 316 W/m 35,4 km/h (5 Bft) 95,74 %
14.11.2020 13:28 16,0 C 17,2 C 17,2 C 78 % 1015,6 hPa 0,0 l/m 2 min 0 min 189 W/m 19,3 km/h (3 Bft) 95,65 %
14.11.2020 13:30 16,1 C 16,7 C 16,7 C 78 % 1015,6 hPa 0,0 l/m 2 min 0 min 164 W/m 32,2 km/h (5 Bft) 93,62 %
14.11.2020 13:32 16,0 C 16,7 C 16,1 C 78 % 1015,6 hPa 0,0 l/m 2 min 0 min 189 W/m 35,4 km/h (5 Bft) 95,74 %
14.11.2020 13:34 16,0 C 16,1 C 15,6 C 77 % 1015,5 hPa 0,0 l/m 0 min 0 min 147 W/m 25,7 km/h (4 Bft) 95,74 %
14.11.2020 13:36 16,0 C 16,1 C 15,0 C 77 % 1015,5 hPa 0,0 l/m 0 min 0 min 119 W/m 25,7 km/h (4 Bft) 95,74 %
14.11.2020 13:38 16,0 C 15,6 C 15,0 C 78 % 1015,5 hPa 0,0 l/m 0 min 0 min 105 W/m 19,3 km/h (3 Bft) 93,48 %
14.11.2020 13:40 16,0 C 15,6 C 14,5 C 78 % 1015,5 hPa 0,0 l/m 0 min 0 min 102 W/m 29,0 km/h (5 Bft) 95,74 %
14.11.2020 13:42 15,9 C 15,6 C 14,5 C 78 % 1015,4 hPa 0,0 l/m 0 min 0 min 102 W/m 29,0 km/h (5 Bft) 93,62 %
14.11.2020 13:44 15,9 C 15,6 C 14,5 C 78 % 1015,5 hPa 0,0 l/m 0 min 0 min 103 W/m 25,7 km/h (4 Bft) 93,62 %
14.11.2020 13:46 15,8 C 15,6 C 14,5 C 78 % 1015,5 hPa 0,0 l/m 0 min 0 min 108 W/m 25,7 km/h (4 Bft) 95,74 %
14.11.2020 13:48 15,8 C 15,6 C 14,5 C 78 % 1015,4 hPa 0,0 l/m 0 min 0 min 114 W/m 22,5 km/h (4 Bft) 95,74 %
14.11.2020 13:50 15,8 C 15,6 C 14,5 C 78 % 1015,5 hPa 0,0 l/m 0 min 0 min 124 W/m 16,1 km/h (3 Bft) 95,65 %
14.11.2020 13:52 15,8 C 15,6 C 14,5 C 78 % 1015,5 hPa 0,0 l/m 0 min 0 min 127 W/m 25,7 km/h (4 Bft) 95,74 %
14.11.2020 13:54 15,7 C 16,1 C 15,6 C 78 % 1015,4 hPa 0,0 l/m 2 min 0 min 166 W/m 25,7 km/h (4 Bft) 93,62 %
14.11.2020 13:56 15,7 C 17,8 C 16,7 C 79 % 1015,4 hPa 0,0 l/m 2 min 0 min 285 W/m 25,7 km/h (4 Bft) 95,74 %
14.11.2020 13:58 15,7 C 17,8 C 17,2 C 79 % 1015,4 hPa 0,0 l/m 2 min 0 min 306 W/m 22,5 km/h (4 Bft) 97,87 %
14.11.2020 14:00 15,8 C 17,2 C 17,2 C 78 % 1015,3 hPa 0,0 l/m 2 min 0 min 234 W/m 32,2 km/h (5 Bft) 97,87 %
14.11.2020 14:02 15,8 C 16,7 C 16,7 C 78 % 1015,3 hPa 0,0 l/m 2 min 0 min 242 W/m 25,7 km/h (4 Bft) 95,65 %
14.11.2020 14:04 15,8 C 17,2 C 17,2 C 78 % 1015,3 hPa 0,0 l/m 2 min 0 min 235 W/m 22,5 km/h (4 Bft) 100,00 %
14.11.2020 14:06 15,9 C 18,3 C 18,4 C 78 % 1015,3 hPa 0,0 l/m 2 min 0 min 310 W/m 19,3 km/h (3 Bft) 100,00 %
14.11.2020 14:08 15,9 C 18,3 C 18,9 C 78 % 1015,3 hPa 0,0 l/m 2 min 0 min 298 W/m 25,7 km/h (4 Bft) 100,00 %
14.11.2020 14:10 15,9 C 18,3 C 18,9 C 78 % 1015,3 hPa 0,0 l/m 2 min 0 min 299 W/m 19,3 km/h (3 Bft) 97,87 %
14.11.2020 14:12 16,0 C 18,9 C 19,5 C 78 % 1015,3 hPa 0,0 l/m 2 min 0 min 315 W/m 19,3 km/h (3 Bft) 100,00 %
14.11.2020 14:14 16,0 C 18,9 C 19,5 C 78 % 1015,2 hPa 0,0 l/m 2 min 0 min 310 W/m 19,3 km/h (3 Bft) 100,00 %
14.11.2020 14:16 16,1 C 18,3 C 18,9 C 77 % 1015,2 hPa 0,0 l/m 2 min 0 min 304 W/m 25,7 km/h (4 Bft) 100,00 %
14.11.2020 14:18 16,1 C 18,9 C 18,4 C 77 % 1015,2 hPa 0,0 l/m 2 min 0 min 298 W/m 22,5 km/h (4 Bft) 100,00 %
14.11.2020 14:20 16,2 C 18,9 C 17,2 C 77 % 1015,2 hPa 0,0 l/m 2 min 0 min 287 W/m 22,5 km/h (4 Bft) 100,00 %
14.11.2020 14:22 16,3 C 18,9 C 16,1 C 77 % 1015,2 hPa 0,0 l/m 2 min 0 min 272 W/m 16,1 km/h (3 Bft) 100,00 %
14.11.2020 14:24 16,3 C 18,9 C 15,6 C 77 % 1015,2 hPa 0,0 l/m 2 min 0 min 265 W/m 16,1 km/h (3 Bft) 100,00 %
14.11.2020 14:26 16,4 C 19,4 C 15,6 C 77 % 1015,2 hPa 0,0 l/m 2 min 0 min 265 W/m 22,5 km/h (4 Bft) 100,00 %
14.11.2020 14:28 16,4 C 18,3 C 15,0 C 76 % 1015,2 hPa 0,0 l/m 2 min 0 min 268 W/m 29,0 km/h (5 Bft) 97,87 %
14.11.2020 14:30 16,4 C 18,9 C 15,0 C 76 % 1015,2 hPa 0,0 l/m 2 min 0 min 268 W/m 16,1 km/h (3 Bft) 100,00 %
14.11.2020 14:32 16,5 C 19,4 C 15,0 C 76 % 1015,2 hPa 0,0 l/m 2 min 0 min 259 W/m 16,1 km/h (3 Bft) 100,00 %
14.11.2020 14:34 16,5 C 19,4 C 15,0 C 77 % 1015,1 hPa 0,0 l/m 2 min 0 min 256 W/m 12,9 km/h (3 Bft) 100,00 %
14.11.2020 14:36 16,5 C 20,0 C 15,0 C 77 % 1015,1 hPa 0,0 l/m 2 min 0 min 249 W/m 6,4 km/h (2 Bft) 100,00 %
14.11.2020 14:38 16,6 C 19,4 C 15,0 C 76 % 1015,0 hPa 0,0 l/m 2 min 0 min 245 W/m 12,9 km/h (3 Bft) 100,00 %
14.11.2020 14:40 16,6 C 18,9 C 15,0 C 76 % 1015,0 hPa 0,0 l/m 2 min 0 min 237 W/m 19,3 km/h (3 Bft) 100,00 %
14.11.2020 14:42 16,6 C 18,9 C 15,0 C 76 % 1015,0 hPa 0,0 l/m 2 min 0 min 216 W/m 6,4 km/h (2 Bft) 100,00 %
14.11.2020 14:44 16,7 C 18,9 C 15,0 C 76 % 1015,0 hPa 0,0 l/m 2 min 0 min 211 W/m 19,3 km/h (3 Bft) 100,00 %
14.11.2020 14:46 16,8 C 18,9 C 15,0 C 76 % 1015,0 hPa 0,0 l/m 2 min 0 min 220 W/m 16,1 km/h (3 Bft) 100,00 %
14.11.2020 14:48 16,8 C 18,3 C 15,0 C 76 % 1014,9 hPa 0,0 l/m 2 min 0 min 206 W/m 22,5 km/h (4 Bft) 100,00 %
14.11.2020 14:50 16,8 C 18,3 C 15,0 C 76 % 1014,9 hPa 0,0 l/m 2 min 0 min 199 W/m 16,1 km/h (3 Bft) 100,00 %
14.11.2020 14:52 16,8 C 18,3 C 15,0 C 76 % 1014,9 hPa 0,0 l/m 2 min 0 min 223 W/m 19,3 km/h (3 Bft) 100,00 %
14.11.2020 14:54 16,8 C 18,9 C 15,0 C 76 % 1014,9 hPa 0,0 l/m 2 min 0 min 226 W/m 22,5 km/h (4 Bft) 100,00 %
14.11.2020 14:56 16,8 C 18,9 C 15,0 C 76 % 1014,9 hPa 0,0 l/m 2 min 0 min 224 W/m 16,1 km/h (3 Bft) 100,00 %
14.11.2020 14:58 16,9 C 18,9 C 15,0 C 76 % 1014,9 hPa 0,0 l/m 2 min 0 min 207 W/m 19,3 km/h (3 Bft) 100,00 %
14.11.2020 15:00 16,9 C 18,3 C 15,0 C 76 % 1014,9 hPa 0,0 l/m 2 min 0 min 178 W/m 22,5 km/h (4 Bft) 100,00 %
14.11.2020 15:02 16,9 C 18,9 C 15,0 C 76 % 1014,9 hPa 0,0 l/m 2 min 0 min 168 W/m 19,3 km/h (3 Bft) 98,11 %
14.11.2020 15:04 16,9 C 18,3 C 15,0 C 76 % 1014,9 hPa 0,0 l/m 2 min 0 min 172 W/m 16,1 km/h (3 Bft) 97,87 %
14.11.2020 15:06 16,9 C 18,3 C 14,5 C 75 % 1014,8 hPa 0,0 l/m 2 min 0 min 180 W/m 16,1 km/h (3 Bft) 97,87 %
14.11.2020 15:08 16,9 C 18,3 C 14,5 C 75 % 1014,9 hPa 0,0 l/m 2 min 0 min 176 W/m 19,3 km/h (3 Bft) 95,74 %
14.11.2020 15:10 16,9 C 18,3 C 14,5 C 75 % 1014,8 hPa 0,0 l/m 2 min 0 min 167 W/m 16,1 km/h (3 Bft) 97,87 %
14.11.2020 15:12 16,9 C 18,3 C 14,5 C 75 % 1014,8 hPa 0,0 l/m 2 min 0 min 162 W/m 19,3 km/h (3 Bft) 95,65 %
14.11.2020 15:14 16,9 C 17,8 C 14,5 C 76 % 1014,9 hPa 0,0 l/m 2 min 0 min 136 W/m 3,2 km/h (1 Bft) 97,87 %
14.11.2020 15:16 16,9 C 17,2 C 14,5 C 76 % 1014,8 hPa 0,0 l/m 0 min 0 min 89 W/m 22,5 km/h (4 Bft) 97,87 %
14.11.2020 15:18 16,9 C 17,8 C 14,5 C 76 % 1014,8 hPa 0,0 l/m 2 min 0 min 120 W/m 19,3 km/h (3 Bft) 100,00 %
14.11.2020 15:20 16,9 C 17,8 C 14,5 C 76 % 1014,8 hPa 0,0 l/m 2 min 0 min 140 W/m 22,5 km/h (4 Bft) 97,87 %
14.11.2020 15:22 16,9 C 17,2 C 14,5 C 76 % 1014,8 hPa 0,0 l/m 2 min 0 min 85 W/m 12,9 km/h (3 Bft) 95,74 %
14.11.2020 15:24 16,9 C 16,7 C 14,5 C 75 % 1014,8 hPa 0,0 l/m 0 min 0 min 50 W/m 16,1 km/h (3 Bft) 97,83 %
14.11.2020 15:26 16,8 C 16,7 C 13,9 C 75 % 1014,8 hPa 0,0 l/m 0 min 0 min 49 W/m 6,4 km/h (2 Bft) 97,87 %
14.11.2020 15:28 16,8 C 16,1 C 13,9 C 76 % 1014,8 hPa 0,0 l/m 0 min 0 min 54 W/m 9,7 km/h (2 Bft) 97,87 %
14.11.2020 15:30 16,7 C 16,1 C 13,9 C 76 % 1014,7 hPa 0,0 l/m 0 min 0 min 42 W/m 16,1 km/h (3 Bft) 97,87 %
14.11.2020 15:32 16,6 C 16,1 C 13,9 C 76 % 1014,7 hPa 0,0 l/m 0 min 0 min 65 W/m 12,9 km/h (3 Bft) 100,00 %
14.11.2020 15:34 16,6 C 16,1 C 13,9 C 76 % 1014,7 hPa 0,0 l/m 0 min 0 min 55 W/m 12,9 km/h (3 Bft) 95,74 %
14.11.2020 15:36 16,5 C 16,7 C 13,9 C 76 % 1014,7 hPa 0,0 l/m 2 min 0 min 79 W/m 16,1 km/h (3 Bft) 95,74 %
14.11.2020 15:38 16,5 C 16,7 C 13,9 C 76 % 1014,7 hPa 0,0 l/m 2 min 0 min 88 W/m 16,1 km/h (3 Bft) 97,83 %
14.11.2020 15:40 16,5 C 16,1 C 13,9 C 76 % 1014,8 hPa 0,0 l/m 0 min 0 min 57 W/m 6,4 km/h (2 Bft) 97,87 %
14.11.2020 15:42 16,4 C 16,1 C 13,4 C 76 % 1014,8 hPa 0,0 l/m 0 min 0 min 39 W/m 16,1 km/h (3 Bft) 97,87 %
14.11.2020 15:44 16,4 C 15,6 C 13,4 C 76 % 1014,7 hPa 0,0 l/m 0 min 0 min 41 W/m 6,4 km/h (2 Bft) 97,87 %
14.11.2020 15:46 16,4 C 16,1 C 13,4 C 76 % 1014,8 hPa 0,0 l/m 0 min 0 min 54 W/m 12,9 km/h (3 Bft) 97,87 %
14.11.2020 15:48 16,3 C 16,1 C 13,4 C 77 % 1014,8 hPa 0,0 l/m 0 min 0 min 57 W/m 19,3 km/h (3 Bft) 93,62 %
14.11.2020 15:50 16,3 C 15,6 C 13,4 C 77 % 1014,8 hPa 0,0 l/m 0 min 0 min 48 W/m 12,9 km/h (3 Bft) 97,83 %
14.11.2020 15:52 16,2 C 15,6 C 13,4 C 77 % 1014,8 hPa 0,0 l/m 0 min 0 min 31 W/m 16,1 km/h (3 Bft) 97,87 %
14.11.2020 15:54 16,1 C 15,0 C 13,4 C 77 % 1014,8 hPa 0,0 l/m 0 min 0 min 27 W/m 16,1 km/h (3 Bft) 97,87 %
14.11.2020 15:56 16,1 C 15,0 C 13,4 C 77 % 1014,7 hPa 0,0 l/m 0 min 0 min 22 W/m 12,9 km/h (3 Bft) 97,87 %
14.11.2020 15:58 16,0 C 15,0 C 13,4 C 77 % 1014,7 hPa 0,0 l/m 0 min 0 min 19 W/m 12,9 km/h (3 Bft) 95,74 %
14.11.2020 16:00 16,0 C 14,4 C 13,4 C 77 % 1014,7 hPa 0,0 l/m 0 min 0 min 19 W/m 12,9 km/h (3 Bft) 97,83 %
14.11.2020 16:02 16,0 C 14,4 C 12,8 C 77 % 1014,7 hPa 0,0 l/m 0 min 0 min 23 W/m 16,1 km/h (3 Bft) 98,00 %
14.11.2020 16:04 15,9 C 14,4 C 12,8 C 77 % 1014,7 hPa 0,0 l/m 0 min 0 min 27 W/m 6,4 km/h (2 Bft) 97,87 %
14.11.2020 16:06 15,9 C 14,4 C 12,8 C 78 % 1014,7 hPa 0,0 l/m 0 min 0 min 30 W/m 0,0 km/h (0 Bft) 93,62 %
14.11.2020 16:08 15,8 C 14,4 C 12,8 C 78 % 1014,6 hPa 0,0 l/m 0 min 0 min 28 W/m 12,9 km/h (3 Bft) 95,74 %
14.11.2020 16:10 15,8 C 14,4 C 12,8 C 78 % 1014,6 hPa 0,0 l/m 0 min 0 min 26 W/m 3,2 km/h (1 Bft) 97,87 %
14.11.2020 16:12 15,7 C 14,4 C 12,8 C 78 % 1014,5 hPa 0,0 l/m 0 min 0 min 25 W/m 6,4 km/h (2 Bft) 97,83 %
14.11.2020 16:14 15,6 C 14,4 C 12,8 C 78 % 1014,5 hPa 0,0 l/m 0 min 0 min 23 W/m 3,2 km/h (1 Bft) 95,74 %
14.11.2020 16:16 15,6 C 14,4 C 12,8 C 78 % 1014,5 hPa 0,0 l/m 0 min 0 min 21 W/m 6,4 km/h (2 Bft) 95,74 %
14.11.2020 16:18 15,5 C 14,4 C 12,8 C 78 % 1014,5 hPa 0,0 l/m 0 min 0 min 19 W/m 6,4 km/h (2 Bft) 97,87 %
14.11.2020 16:20 15,5 C 13,9 C 12,8 C 79 % 1014,5 hPa 0,0 l/m 0 min 0 min 17 W/m 6,4 km/h (2 Bft) 97,87 %
14.11.2020 16:22 15,4 C 13,9 C 12,2 C 79 % 1014,5 hPa 0,0 l/m 0 min 0 min 16 W/m 16,1 km/h (3 Bft) 97,87 %
14.11.2020 16:24 15,4 C 13,9 C 12,2 C 79 % 1014,5 hPa 0,0 l/m 0 min 0 min 14 W/m 16,1 km/h (3 Bft) 97,83 %
14.11.2020 16:26 15,3 C 13,9 C 12,2 C 79 % 1014,5 hPa 0,0 l/m 0 min 0 min 13 W/m 6,4 km/h (2 Bft) 93,62 %
14.11.2020 16:28 15,3 C 13,9 C 12,2 C 79 % 1014,5 hPa 0,0 l/m 0 min 0 min 12 W/m 6,4 km/h (2 Bft) 95,74 %
14.11.2020 16:30 15,2 C 13,9 C 12,2 C 79 % 1014,5 hPa 0,0 l/m 0 min 0 min 11 W/m 19,3 km/h (3 Bft) 93,62 %
14.11.2020 16:32 15,1 C 13,9 C 12,2 C 80 % 1014,5 hPa 0,0 l/m 0 min 0 min 9 W/m 16,1 km/h (3 Bft) 95,74 %
14.11.2020 16:34 15,1 C 13,9 C 12,2 C 80 % 1014,5 hPa 0,0 l/m 0 min 0 min 9 W/m 12,9 km/h (3 Bft) 97,83 %
14.11.2020 16:36 15,0 C 13,9 C 12,2 C 80 % 1014,5 hPa 0,0 l/m 0 min 0 min 8 W/m 22,5 km/h (4 Bft) 95,74 %
14.11.2020 16:38 15,0 C 13,9 C 12,2 C 80 % 1014,5 hPa 0,0 l/m 0 min 0 min 7 W/m 16,1 km/h (3 Bft) 97,87 %
14.11.2020 16:40 15,0 C 13,9 C 12,2 C 80 % 1014,5 hPa 0,0 l/m 0 min 0 min 5 W/m 16,1 km/h (3 Bft) 97,96 %
14.11.2020 16:42 15,0 C 13,9 C 12,2 C 80 % 1014,4 hPa 0,0 l/m 0 min 0 min 5 W/m 19,3 km/h (3 Bft) 97,87 %
14.11.2020 16:44 14,9 C 13,9 C 12,8 C 80 % 1014,5 hPa 0,0 l/m 0 min 0 min 0 W/m 19,3 km/h (3 Bft) 97,83 %
14.11.2020 16:46 14,9 C 13,9 C 12,8 C 80 % 1014,4 hPa 0,0 l/m 0 min 0 min 0 W/m 22,5 km/h (4 Bft) 97,87 %
14.11.2020 16:48 14,9 C 13,9 C 12,8 C 80 % 1014,4 hPa 0,0 l/m 0 min 0 min 0 W/m 19,3 km/h (3 Bft) 97,87 %
14.11.2020 16:50 14,9 C 13,9 C 12,8 C 80 % 1014,4 hPa 0,0 l/m 0 min 0 min 0 W/m 22,5 km/h (4 Bft) 97,87 %
14.11.2020 16:52 14,9 C 13,9 C 12,8 C 80 % 1014,4 hPa 0,0 l/m 0 min 0 min 0 W/m 19,3 km/h (3 Bft) 97,87 %
14.11.2020 16:54 14,8 C 13,9 C 12,2 C 80 % 1014,4 hPa 0,0 l/m 0 min 0 min 0 W/m 16,1 km/h (3 Bft) 97,87 %
14.11.2020 16:56 14,8 C 13,9 C 12,2 C 80 % 1014,4 hPa 0,0 l/m 0 min 0 min 0 W/m 22,5 km/h (4 Bft) 97,83 %
14.11.2020 16:58 14,8 C 13,9 C 12,2 C 81 % 1014,3 hPa 0,0 l/m 0 min 0 min 0 W/m 22,5 km/h (4 Bft) 97,87 %
14.11.2020 17:00 14,8 C 13,9 C 12,2 C 81 % 1014,4 hPa 0,0 l/m 0 min 0 min 0 W/m 12,9 km/h (3 Bft) 95,74 %
14.11.2020 17:02 14,8 C 13,9 C 12,2 C 81 % 1014,3 hPa 0,0 l/m 0 min 0 min 0 W/m 19,3 km/h (3 Bft) 95,74 %
14.11.2020 17:04 14,7 C 13,9 C 12,2 C 81 % 1014,3 hPa 0,0 l/m 0 min 0 min 0 W/m 22,5 km/h (4 Bft) 97,87 %
14.11.2020 17:06 14,7 C 13,9 C 12,2 C 81 % 1014,2 hPa 0,0 l/m 0 min 0 min 0 W/m 16,1 km/h (3 Bft) 93,62 %
14.11.2020 17:08 14,6 C 13,3 C 12,2 C 81 % 1014,2 hPa 0,0 l/m 0 min 0 min 0 W/m 12,9 km/h (3 Bft) 100,00 %
14.11.2020 17:10 14,6 C 13,3 C 12,2 C 81 % 1014,2 hPa 0,0 l/m 0 min 0 min 0 W/m 16,1 km/h (3 Bft) 97,87 %
14.11.2020 17:12 14,6 C 13,3 C 12,2 C 81 % 1014,2 hPa 0,0 l/m 0 min 0 min 0 W/m 16,1 km/h (3 Bft) 100,00 %
14.11.2020 17:14 14,5 C 13,3 C 12,2 C 81 % 1014,2 hPa 0,0 l/m 0 min 0 min 0 W/m 19,3 km/h (3 Bft) 100,00 %
14.11.2020 17:16 14,5 C 13,3 C 12,2 C 82 % 1014,2 hPa 0,0 l/m 0 min 0 min 0 W/m 16,1 km/h (3 Bft) 100,00 %
14.11.2020 17:18 14,4 C 13,3 C 11,7 C 82 % 1014,2 hPa 0,0 l/m 0 min 0 min 0 W/m 12,9 km/h (3 Bft) 100,00 %
14.11.2020 17:20 14,4 C 13,3 C 11,7 C 82 % 1014,1 hPa 0,0 l/m 0 min 0 min 0 W/m 19,3 km/h (3 Bft) 100,00 %
14.11.2020 17:22 14,4 C 13,3 C 11,7 C 82 % 1014,2 hPa 0,0 l/m 0 min 0 min 0 W/m 22,5 km/h (4 Bft) 100,00 %
14.11.2020 17:24 14,3 C 13,3 C 11,7 C 82 % 1014,1 hPa 0,0 l/m 0 min 0 min 0 W/m 12,9 km/h (3 Bft) 97,87 %
14.11.2020 17:26 14,3 C 13,3 C 11,7 C 82 % 1014,1 hPa 0,0 l/m 0 min 0 min 0 W/m 16,1 km/h (3 Bft) 100,00 %
14.11.2020 17:28 14,2 C 13,3 C 11,7 C 82 % 1014,1 hPa 0,0 l/m 0 min 0 min 0 W/m 16,1 km/h (3 Bft) 100,00 %
14.11.2020 17:30 14,2 C 13,3 C 11,7 C 82 % 1014,1 hPa 0,0 l/m 0 min 0 min 0 W/m 19,3 km/h (3 Bft) 100,00 %
14.11.2020 17:32 14,2 C 12,8 C 11,7 C 83 % 1014,1 hPa 0,0 l/m 0 min 0 min 0 W/m 12,9 km/h (3 Bft) 100,00 %
14.11.2020 17:34 14,2 C 12,8 C 11,7 C 83 % 1014,1 hPa 0,0 l/m 0 min 0 min 0 W/m 19,3 km/h (3 Bft) 100,00 %
14.11.2020 17:36 14,2 C 12,8 C 11,7 C 83 % 1014,1 hPa 0,0 l/m 0 min 0 min 0 W/m 12,9 km/h (3 Bft) 100,00 %
14.11.2020 17:38 14,2 C 12,8 C 11,7 C 83 % 1014,1 hPa 0,0 l/m 0 min 0 min 0 W/m 3,2 km/h (1 Bft) 100,00 %
14.11.2020 17:40 14,1 C 12,8 C 11,7 C 83 % 1014,1 hPa 0,0 l/m 0 min 0 min 0 W/m 6,4 km/h (2 Bft) 100,00 %
14.11.2020 17:42 14,1 C 12,8 C 11,7 C 83 % 1014,1 hPa 0,0 l/m 0 min 0 min 0 W/m 0,0 km/h (0 Bft) 100,00 %
14.11.2020 17:44 14,0 C 12,8 C 11,7 C 83 % 1014,1 hPa 0,0 l/m 0 min 0 min 0 W/m 3,2 km/h (1 Bft) 100,00 %
14.11.2020 17:46 14,0 C 12,8 C 11,1 C 83 % 1014,1 hPa 0,0 l/m 0 min 0 min 0 W/m 0,0 km/h (0 Bft) 100,00 %
14.11.2020 17:48 13,9 C 12,2 C 11,1 C 84 % 1014,1 hPa 0,0 l/m 0 min 0 min 0 W/m 0,0 km/h (0 Bft) 100,00 %
14.11.2020 17:50 13,9 C 12,2 C 11,1 C 84 % 1014,1 hPa 0,0 l/m 0 min 0 min 0 W/m 0,0 km/h (0 Bft) 100,00 %
14.11.2020 17:52 13,9 C 12,2 C 11,1 C 84 % 1014,1 hPa 0,0 l/m 0 min 0 min 0 W/m 0,0 km/h (0 Bft) 100,00 %
14.11.2020 17:54 13,8 C 12,2 C 11,1 C 84 % 1014,1 hPa 0,0 l/m 0 min 0 min 0 W/m 0,0 km/h (0 Bft) 100,00 %
14.11.2020 17:56 13,8 C 12,2 C 11,1 C 84 % 1014,1 hPa 0,0 l/m 0 min 0 min 0 W/m 3,2 km/h (1 Bft) 100,00 %
14.11.2020 17:58 13,7 C 12,2 C 10,6 C 84 % 1014,1 hPa 0,0 l/m 0 min 0 min 0 W/m 0,0 km/h (0 Bft) 100,00 %
14.11.2020 18:00 13,6 C 12,2 C 10,6 C 84 % 1014,0 hPa 0,0 l/m 0 min 0 min 0 W/m 3,2 km/h (1 Bft) 100,00 %
14.11.2020 18:02 13,6 C 12,2 C 10,6 C 84 % 1014,0 hPa 0,0 l/m 0 min 0 min 0 W/m 0,0 km/h (0 Bft) 98,11 %
14.11.2020 18:04 13,5 C 11,7 C 10,6 C 84 % 1014,0 hPa 0,0 l/m 0 min 0 min 0 W/m 3,2 km/h (1 Bft) 100,00 %
14.11.2020 18:08 13,4 C 11,7 C 10,6 C 85 % 1014,0 hPa 0,0 l/m 0 min 0 min 0 W/m 0,0 km/h (0 Bft) 100,00 %
14.11.2020 18:10 13,3 C 11,7 C 10,6 C 85 % 1014,0 hPa 0,0 l/m 0 min 0 min 0 W/m 3,2 km/h (1 Bft) 100,00 %
14.11.2020 18:12 13,3 C 12,2 C 10,6 C 85 % 1013,9 hPa 0,0 l/m 0 min 0 min 0 W/m 3,2 km/h (1 Bft) 100,00 %
14.11.2020 18:14 13,2 C 12,2 C 10,6 C 85 % 1013,9 hPa 0,0 l/m 0 min 0 min 0 W/m 6,4 km/h (2 Bft) 97,87 %
14.11.2020 18:16 13,1 C 12,2 C 10,6 C 86 % 1014,0 hPa 0,0 l/m 0 min 0 min 0 W/m 12,9 km/h (3 Bft) 97,87 %
14.11.2020 18:18 13,1 C 12,2 C 10,6 C 86 % 1014,0 hPa 0,0 l/m 0 min 0 min 0 W/m 12,9 km/h (3 Bft) 100,00 %
14.11.2020 18:20 13,1 C 12,2 C 10,6 C 86 % 1013,9 hPa 0,0 l/m 0 min 0 min 0 W/m 12,9 km/h (3 Bft) 100,00 %
14.11.2020 18:22 13,0 C 12,2 C 10,6 C 86 % 1013,9 hPa 0,0 l/m 0 min 0 min 0 W/m 9,7 km/h (2 Bft) 100,00 %
14.11.2020 18:24 13,0 C 12,2 C 10,6 C 86 % 1013,9 hPa 0,0 l/m 0 min 0 min 0 W/m 12,9 km/h (3 Bft) 100,00 %
14.11.2020 18:26 13,0 C 12,2 C 10,6 C 87 % 1013,9 hPa 0,0 l/m 0 min 0 min 0 W/m 6,4 km/h (2 Bft) 97,87 %
14.11.2020 18:28 13,0 C 12,2 C 10,6 C 87 % 1013,9 hPa 0,0 l/m 0 min 0 min 0 W/m 6,4 km/h (2 Bft) 100,00 %
14.11.2020 18:30 13,0 C 12,2 C 10,6 C 87 % 1013,9 hPa 0,0 l/m 0 min 0 min 0 W/m 12,9 km/h (3 Bft) 95,65 %
14.11.2020 18:32 13,0 C 12,2 C 10,6 C 87 % 1013,8 hPa 0,0 l/m 0 min 0 min 0 W/m 6,4 km/h (2 Bft) 97,87 %
14.11.2020 18:34 12,9 C 12,2 C 10,6 C 87 % 1013,9 hPa 0,0 l/m 0 min 0 min 0 W/m 12,9 km/h (3 Bft) 97,87 %
14.11.2020 18:36 12,9 C 12,2 C 10,6 C 87 % 1013,9 hPa 0,0 l/m 0 min 0 min 0 W/m 6,4 km/h (2 Bft) 95,74 %
14.11.2020 18:38 12,9 C 12,2 C 11,1 C 88 % 1013,9 hPa 0,0 l/m 0 min 0 min 0 W/m 6,4 km/h (2 Bft) 95,74 %
14.11.2020 18:40 12,9 C 12,2 C 10,6 C 88 % 1013,9 hPa 0,0 l/m 0 min 0 min 0 W/m 12,9 km/h (3 Bft) 95,74 %
14.11.2020 18:42 12,9 C 12,2 C 10,6 C 88 % 1013,9 hPa 0,0 l/m 0 min 0 min 0 W/m 6,4 km/h (2 Bft) 92,31 %
14.11.2020 18:44 12,9 C 12,2 C 10,6 C 88 % 1013,9 hPa 0,0 l/m 0 min 0 min 0 W/m 6,4 km/h (2 Bft) 93,48 %
14.11.2020 18:46 12,9 C 12,2 C 11,1 C 88 % 1013,9 hPa 0,0 l/m 0 min 0 min 0 W/m 12,9 km/h (3 Bft) 95,74 %
14.11.2020 18:48 12,9 C 12,2 C 11,1 C 88 % 1013,9 hPa 0,0 l/m 0 min 0 min 0 W/m 3,2 km/h (1 Bft) 95,74 %
14.11.2020 18:50 12,9 C 12,2 C 11,1 C 88 % 1013,9 hPa 0,0 l/m 0 min 0 min 0 W/m 0,0 km/h (0 Bft) 93,62 %
14.11.2020 18:52 12,9 C 12,2 C 11,1 C 88 % 1013,9 hPa 0,0 l/m 0 min 0 min 0 W/m 3,2 km/h (1 Bft) 91,49 %
14.11.2020 18:54 12,9 C 12,2 C 11,1 C 88 % 1013,8 hPa 0,0 l/m 0 min 0 min 0 W/m 6,4 km/h (2 Bft) 95,74 %
14.11.2020 18:56 12,9 C 12,2 C 11,1 C 88 % 1013,7 hPa 0,0 l/m 0 min 0 min 0 W/m 16,1 km/h (3 Bft) 93,48 %
14.11.2020 18:58 12,9 C 12,2 C 11,1 C 89 % 1013,7 hPa 0,0 l/m 0 min 0 min 0 W/m 16,1 km/h (3 Bft) 95,74 %
14.11.2020 19:00 12,9 C 12,2 C 11,1 C 89 % 1013,7 hPa 0,0 l/m 0 min 0 min 0 W/m 12,9 km/h (3 Bft) 93,62 %
14.11.2020 19:02 12,9 C 12,2 C 11,1 C 89 % 1013,7 hPa 0,0 l/m 0 min 0 min 0 W/m 16,1 km/h (3 Bft) 93,75 %
14.11.2020 19:04 12,9 C 12,2 C 11,1 C 89 % 1013,7 hPa 0,0 l/m 0 min 0 min 0 W/m 6,4 km/h (2 Bft) 93,62 %
14.11.2020 19:06 12,9 C 12,2 C 11,1 C 89 % 1013,7 hPa 0,0 l/m 0 min 0 min 0 W/m 6,4 km/h (2 Bft) 91,30 %
14.11.2020 19:08 12,9 C 12,2 C 11,1 C 89 % 1013,7 hPa 0,0 l/m 0 min 0 min 0 W/m 3,2 km/h (1 Bft) 91,49 %
14.11.2020 19:10 12,9 C 12,2 C 11,1 C 89 % 1013,7 hPa 0,0 l/m 0 min 0 min 0 W/m 0,0 km/h (0 Bft) 93,62 %
14.11.2020 19:12 12,9 C 12,2 C 11,1 C 89 % 1013,7 hPa 0,0 l/m 0 min 0 min 0 W/m 6,4 km/h (2 Bft) 95,74 %
14.11.2020 19:14 12,9 C 12,2 C 11,1 C 89 % 1013,7 hPa 0,0 l/m 0 min 0 min 0 W/m 3,2 km/h (1 Bft) 93,62 %
14.11.2020 19:16 12,9 C 12,2 C 11,1 C 89 % 1013,7 hPa 0,0 l/m 0 min 0 min 0 W/m 0,0 km/h (0 Bft) 91,49 %
14.11.2020 19:18 12,9 C 12,2 C 11,1 C 89 % 1013,6 hPa 0,0 l/m 0 min 0 min 0 W/m 0,0 km/h (0 Bft) 93,48 %
14.11.2020 19:20 12,9 C 12,2 C 11,1 C 89 % 1013,6 hPa 0,0 l/m 0 min 0 min 0 W/m 6,4 km/h (2 Bft) 91,49 %
14.11.2020 19:22 12,9 C 12,2 C 11,1 C 89 % 1013,6 hPa 0,0 l/m 0 min 0 min 0 W/m 6,4 km/h (2 Bft) 93,62 %
14.11.2020 19:24 12,9 C 12,2 C 11,1 C 89 % 1013,5 hPa 0,0 l/m 0 min 0 min 0 W/m 12,9 km/h (3 Bft) 93,62 %
14.11.2020 19:26 12,9 C 12,2 C 11,1 C 89 % 1013,6 hPa 0,0 l/m 0 min 0 min 0 W/m 3,2 km/h (1 Bft) 95,74 %
14.11.2020 19:28 12,9 C 12,2 C 11,1 C 89 % 1013,6 hPa 0,0 l/m 0 min 0 min 0 W/m 12,9 km/h (3 Bft) 95,74 %
14.11.2020 19:30 12,9 C 12,2 C 11,1 C 89 % 1013,6 hPa 0,0 l/m 0 min 0 min 0 W/m 6,4 km/h (2 Bft) 93,48 %
14.11.2020 19:32 12,9 C 12,2 C 11,1 C 89 % 1013,6 hPa 0,0 l/m 0 min 0 min 0 W/m 12,9 km/h (3 Bft) 93,75 %
14.11.2020 19:34 12,9 C 12,2 C 11,1 C 89 % 1013,6 hPa 0,0 l/m 0 min 0 min 0 W/m 12,9 km/h (3 Bft) 97,87 %
14.11.2020 19:36 12,9 C 12,2 C 11,1 C 89 % 1013,6 hPa 0,0 l/m 0 min 0 min 0 W/m 22,5 km/h (4 Bft) 95,74 %
14.11.2020 19:38 12,9 C 12,2 C 11,1 C 89 % 1013,6 hPa 0,0 l/m 0 min 0 min 0 W/m 3,2 km/h (1 Bft) 94,29 %
14.11.2020 19:40 12,9 C 12,2 C 11,1 C 89 % 1013,5 hPa 0,0 l/m 0 min 0 min 0 W/m 3,2 km/h (1 Bft) 98,28 %
14.11.2020 19:42 12,9 C 12,2 C 11,1 C 89 % 1013,5 hPa 0,0 l/m 0 min 0 min 0 W/m 12,9 km/h (3 Bft) 97,87 %
14.11.2020 19:44 12,9 C 12,2 C 11,1 C 89 % 1013,5 hPa 0,0 l/m 0 min 0 min 0 W/m 6,4 km/h (2 Bft) 97,87 %
14.11.2020 19:46 12,9 C 12,2 C 11,1 C 89 % 1013,5 hPa 0,0 l/m 0 min 0 min 0 W/m 12,9 km/h (3 Bft) 93,62 %
14.11.2020 19:48 12,9 C 12,2 C 11,1 C 89 % 1013,4 hPa 0,0 l/m 0 min 0 min 0 W/m 12,9 km/h (3 Bft) 100,00 %
14.11.2020 19:50 12,9 C 12,2 C 11,1 C 89 % 1013,4 hPa 0,0 l/m 0 min 0 min 0 W/m 6,4 km/h (2 Bft) 100,00 %
14.11.2020 19:52 13,0 C 12,2 C 11,1 C 89 % 1013,4 hPa 0,0 l/m 0 min 0 min 0 W/m 12,9 km/h (3 Bft) 97,83 %
14.11.2020 19:54 13,0 C 12,2 C 11,1 C 89 % 1013,4 hPa 0,0 l/m 0 min 0 min 0 W/m 16,1 km/h (3 Bft) 97,87 %
14.11.2020 19:56 13,0 C 12,2 C 11,1 C 89 % 1013,3 hPa 0,0 l/m 0 min 0 min 0 W/m 16,1 km/h (3 Bft) 97,87 %
14.11.2020 19:58 13,0 C 12,2 C 11,1 C 89 % 1013,3 hPa 0,0 l/m 0 min 0 min 0 W/m 12,9 km/h (3 Bft) 100,00 %
14.11.2020 20:00 13,0 C 12,2 C 11,1 C 89 % 1013,3 hPa 0,0 l/m 0 min 0 min 0 W/m 12,9 km/h (3 Bft) 100,00 %
14.11.2020 20:02 13,0 C 12,2 C 11,1 C 89 % 1013,2 hPa 0,0 l/m 0 min 0 min 0 W/m 16,1 km/h (3 Bft) 100,00 %
14.11.2020 20:04 13,0 C 12,2 C 11,1 C 89 % 1013,2 hPa 0,0 l/m 0 min 0 min 0 W/m 9,7 km/h (2 Bft) 97,87 %
14.11.2020 20:06 13,0 C 12,2 C 11,1 C 89 % 1013,2 hPa 0,0 l/m 0 min 0 min 0 W/m 19,3 km/h (3 Bft) 100,00 %
14.11.2020 20:08 13,0 C 12,2 C 11,1 C 89 % 1013,2 hPa 0,0 l/m 0 min 0 min 0 W/m 19,3 km/h (3 Bft) 100,00 %
14.11.2020 20:10 13,0 C 12,2 C 11,1 C 89 % 1013,2 hPa 0,0 l/m 0 min 0 min 0 W/m 6,4 km/h (2 Bft) 100,00 %
14.11.2020 20:12 13,0 C 12,2 C 11,1 C 89 % 1013,2 hPa 0,0 l/m 0 min 0 min 0 W/m 12,9 km/h (3 Bft) 100,00 %
14.11.2020 20:14 13,0 C 12,2 C 11,1 C 89 % 1013,1 hPa 0,0 l/m 0 min 0 min 0 W/m 22,5 km/h (4 Bft) 100,00 %
14.11.2020 20:16 13,0 C 12,2 C 11,1 C 89 % 1013,1 hPa 0,0 l/m 0 min 0 min 0 W/m 3,2 km/h (1 Bft) 100,00 %
14.11.2020 20:18 13,0 C 12,2 C 11,1 C 89 % 1013,1 hPa 0,0 l/m 0 min 0 min 0 W/m 16,1 km/h (3 Bft) 100,00 %
14.11.2020 20:20 13,1 C 12,2 C 11,1 C 89 % 1013,1 hPa 0,0 l/m 0 min 0 min 0 W/m 6,4 km/h (2 Bft) 100,00 %
14.11.2020 20:22 13,0 C 12,2 C 11,1 C 89 % 1013,1 hPa 0,0 l/m 0 min 0 min 0 W/m 16,1 km/h (3 Bft) 100,00 %
14.11.2020 20:24 13,0 C 12,2 C 11,1 C 89 % 1013,1 hPa 0,0 l/m 0 min 0 min 0 W/m 12,9 km/h (3 Bft) 100,00 %
14.11.2020 20:26 13,0 C 12,2 C 11,1 C 89 % 1013,1 hPa 0,0 l/m 0 min 0 min 0 W/m 12,9 km/h (3 Bft) 100,00 %
14.11.2020 20:28 13,0 C 12,2 C 11,1 C 89 % 1013,1 hPa 0,0 l/m 0 min 0 min 0 W/m 3,2 km/h (1 Bft) 97,87 %
14.11.2020 20:30 13,0 C 12,2 C 11,1 C 89 % 1013,1 hPa 0,0 l/m 0 min 0 min 0 W/m 6,4 km/h (2 Bft) 100,00 %
14.11.2020 20:32 13,0 C 12,2 C 11,1 C 89 % 1013,0 hPa 0,0 l/m 0 min 0 min 0 W/m 9,7 km/h (2 Bft) 100,00 %
14.11.2020 20:34 13,0 C 12,2 C 11,1 C 89 % 1013,0 hPa 0,0 l/m 0 min 0 min 0 W/m 3,2 km/h (1 Bft) 100,00 %
14.11.2020 20:36 13,0 C 12,2 C 11,1 C 89 % 1013,0 hPa 0,0 l/m 0 min 0 min 0 W/m 6,4 km/h (2 Bft) 100,00 %
14.11.2020 20:38 13,0 C 12,2 C 11,1 C 89 % 1013,0 hPa 0,0 l/m 0 min 0 min 0 W/m 6,4 km/h (2 Bft) 100,00 %
14.11.2020 20:40 13,0 C 12,2 C 11,1 C 89 % 1013,0 hPa 0,0 l/m 0 min 0 min 0 W/m 3,2 km/h (1 Bft) 100,00 %
14.11.2020 20:42 13,0 C 12,2 C 11,1 C 89 % 1013,0 hPa 0,0 l/m 0 min 0 min 0 W/m 3,2 km/h (1 Bft) 100,00 %
14.11.2020 20:44 13,0 C 12,2 C 11,1 C 89 % 1013,0 hPa 0,0 l/m 0 min 0 min 0 W/m 3,2 km/h (1 Bft) 100,00 %
14.11.2020 20:46 13,0 C 12,2 C 11,1 C 89 % 1013,1 hPa 0,0 l/m 0 min 0 min 0 W/m 12,9 km/h (3 Bft) 100,00 %
14.11.2020 20:48 12,9 C 12,2 C 11,1 C 89 % 1013,1 hPa 0,0 l/m 0 min 0 min 0 W/m 16,1 km/h (3 Bft) 100,00 %
14.11.2020 20:50 12,9 C 12,2 C 11,1 C 89 % 1013,0 hPa 0,0 l/m 0 min 0 min 0 W/m 6,4 km/h (2 Bft) 100,00 %
14.11.2020 20:52 12,9 C 12,2 C 11,1 C 89 % 1013,0 hPa 0,0 l/m 0 min 0 min 0 W/m 3,2 km/h (1 Bft) 100,00 %
14.11.2020 20:54 12,9 C 12,2 C 11,1 C 89 % 1013,0 hPa 0,0 l/m 0 min 0 min 0 W/m 9,7 km/h (2 Bft) 100,00 %
14.11.2020 20:56 12,9 C 12,2 C 11,1 C 89 % 1013,0 hPa 0,0 l/m 0 min 0 min 0 W/m 19,3 km/h (3 Bft) 100,00 %
14.11.2020 20:58 12,9 C 12,2 C 11,1 C 89 % 1013,0 hPa 0,0 l/m 0 min 0 min 0 W/m 16,1 km/h (3 Bft) 100,00 %
14.11.2020 21:00 12,9 C 12,2 C 11,1 C 89 % 1013,0 hPa 0,0 l/m 0 min 0 min 0 W/m 9,7 km/h (2 Bft) 100,00 %
14.11.2020 21:02 12,9 C 12,2 C 11,1 C 89 % 1013,0 hPa 0,0 l/m 0 min 0 min 0 W/m 6,4 km/h (2 Bft) 100,00 %
14.11.2020 21:04 12,9 C 12,2 C 11,1 C 89 % 1012,9 hPa 0,0 l/m 0 min 0 min 0 W/m 6,4 km/h (2 Bft) 100,00 %
14.11.2020 21:06 12,9 C 12,2 C 11,1 C 89 % 1013,0 hPa 0,0 l/m 0 min 0 min 0 W/m 3,2 km/h (1 Bft) 100,00 %
14.11.2020 21:08 12,9 C 12,2 C 11,1 C 89 % 1012,9 hPa 0,0 l/m 0 min 0 min 0 W/m 6,4 km/h (2 Bft) 100,00 %
14.11.2020 21:10 12,9 C 12,2 C 11,1 C 89 % 1012,9 hPa 0,0 l/m 0 min 0 min 0 W/m 16,1 km/h (3 Bft) 100,00 %
14.11.2020 21:12 12,9 C 12,2 C 11,1 C 89 % 1013,0 hPa 0,0 l/m 0 min 0 min 0 W/m 16,1 km/h (3 Bft) 100,00 %
14.11.2020 21:14 12,8 C 12,2 C 11,1 C 89 % 1012,9 hPa 0,0 l/m 0 min 0 min 0 W/m 12,9 km/h (3 Bft) 97,83 %
14.11.2020 21:16 12,8 C 12,2 C 11,1 C 89 % 1012,9 hPa 0,0 l/m 0 min 0 min 0 W/m 9,7 km/h (2 Bft) 97,87 %
14.11.2020 21:18 12,8 C 12,2 C 11,1 C 89 % 1012,9 hPa 0,0 l/m 0 min 0 min 0 W/m 6,4 km/h (2 Bft) 97,87 %
14.11.2020 21:20 12,8 C 12,2 C 11,1 C 89 % 1012,9 hPa 0,0 l/m 0 min 0 min 0 W/m 16,1 km/h (3 Bft) 100,00 %
14.11.2020 21:22 12,8 C 12,2 C 11,1 C 89 % 1012,9 hPa 0,0 l/m 0 min 0 min 0 W/m 12,9 km/h (3 Bft) 97,87 %
14.11.2020 21:24 12,8 C 12,2 C 11,1 C 89 % 1012,9 hPa 0,0 l/m 0 min 0 min 0 W/m 19,3 km/h (3 Bft) 97,87 %
14.11.2020 21:26 12,8 C 12,2 C 11,1 C 89 % 1013,0 hPa 0,0 l/m 0 min 0 min 0 W/m 6,4 km/h (2 Bft) 95,65 %
14.11.2020 21:28 12,8 C 12,2 C 11,1 C 89 % 1012,9 hPa 0,0 l/m 0 min 0 min 0 W/m 19,3 km/h (3 Bft) 95,74 %
14.11.2020 21:30 12,8 C 12,2 C 11,1 C 89 % 1012,9 hPa 0,0 l/m 0 min 0 min 0 W/m 6,4 km/h (2 Bft) 97,87 %
14.11.2020 21:32 12,8 C 12,2 C 11,1 C 89 % 1012,9 hPa 0,0 l/m 0 min 0 min 0 W/m 16,1 km/h (3 Bft) 97,87 %
14.11.2020 21:34 12,8 C 12,2 C 11,1 C 89 % 1012,9 hPa 0,0 l/m 0 min 0 min 0 W/m 6,4 km/h (2 Bft) 97,87 %
14.11.2020 21:36 12,8 C 12,2 C 11,1 C 89 % 1012,9 hPa 0,0 l/m 0 min 0 min 0 W/m 16,1 km/h (3 Bft) 97,83 %
14.11.2020 21:38 12,8 C 12,2 C 11,1 C 89 % 1012,9 hPa 0,0 l/m 0 min 0 min 0 W/m 3,2 km/h (1 Bft) 95,74 %
14.11.2020 21:40 12,8 C 12,2 C 11,1 C 89 % 1012,9 hPa 0,0 l/m 0 min 0 min 0 W/m 6,4 km/h (2 Bft) 95,74 %
14.11.2020 21:42 12,7 C 12,2 C 11,1 C 89 % 1012,9 hPa 0,0 l/m 0 min 0 min 0 W/m 12,9 km/h (3 Bft) 97,87 %
14.11.2020 21:44 12,7 C 12,2 C 11,1 C 89 % 1012,9 hPa 0,0 l/m 0 min 0 min 0 W/m 12,9 km/h (3 Bft) 95,74 %
14.11.2020 21:46 12,7 C 12,2 C 11,1 C 89 % 1013,0 hPa 0,0 l/m 0 min 0 min 0 W/m 19,3 km/h (3 Bft) 97,92 %
14.11.2020 21:48 12,7 C 12,2 C 11,1 C 89 % 1013,0 hPa 0,0 l/m 0 min 0 min 0 W/m 16,1 km/h (3 Bft) 95,65 %
14.11.2020 21:50 12,7 C 11,7 C 10,6 C 89 % 1013,0 hPa 0,0 l/m 0 min 0 min 0 W/m 9,7 km/h (2 Bft) 97,87 %
14.11.2020 21:52 12,7 C 11,7 C 10,6 C 89 % 1013,0 hPa 0,0 l/m 0 min 0 min 0 W/m 3,2 km/h (1 Bft) 95,74 %
14.11.2020 21:54 12,6 C 11,7 C 10,6 C 89 % 1013,0 hPa 0,0 l/m 0 min 0 min 0 W/m 16,1 km/h (3 Bft) 91,49 %
14.11.2020 21:56 12,6 C 11,7 C 10,6 C 89 % 1013,0 hPa 0,0 l/m 0 min 0 min 0 W/m 16,1 km/h (3 Bft) 95,74 %
14.11.2020 21:58 12,6 C 11,7 C 10,6 C 89 % 1013,0 hPa 0,0 l/m 0 min 0 min 0 W/m 12,9 km/h (3 Bft) 95,74 %
14.11.2020 22:00 12,6 C 11,7 C 10,6 C 89 % 1013,0 hPa 0,0 l/m 0 min 0 min 0 W/m 6,4 km/h (2 Bft) 93,48 %
14.11.2020 22:02 12,6 C 11,7 C 10,6 C 89 % 1013,0 hPa 0,0 l/m 0 min 0 min 0 W/m 12,9 km/h (3 Bft) 91,49 %
14.11.2020 22:04 12,6 C 11,7 C 10,6 C 89 % 1013,0 hPa 0,0 l/m 0 min 0 min 0 W/m 3,2 km/h (1 Bft) 95,74 %
14.11.2020 22:06 12,6 C 11,7 C 10,6 C 89 % 1013,0 hPa 0,0 l/m 0 min 0 min 0 W/m 3,2 km/h (1 Bft) 95,74 %
14.11.2020 22:08 12,6 C 11,7 C 10,6 C 89 % 1012,9 hPa 0,0 l/m 0 min 0 min 0 W/m 6,4 km/h (2 Bft) 91,49 %
14.11.2020 22:10 12,5 C 11,7 C 10,6 C 89 % 1012,9 hPa 0,0 l/m 0 min 0 min 0 W/m 3,2 km/h (1 Bft) 95,65 %
14.11.2020 22:12 12,5 C 11,7 C 10,6 C 89 % 1013,0 hPa 0,0 l/m 0 min 0 min 0 W/m 3,2 km/h (1 Bft) 95,74 %
14.11.2020 22:14 12,5 C 11,7 C 10,6 C 89 % 1013,0 hPa 0,0 l/m 0 min 0 min 0 W/m 3,2 km/h (1 Bft) 95,74 %
14.11.2020 22:16 12,5 C 11,7 C 10,6 C 89 % 1012,9 hPa 0,0 l/m 0 min 0 min 0 W/m 3,2 km/h (1 Bft) 95,74 %
14.11.2020 22:18 12,5 C 11,7 C 10,6 C 89 % 1012,9 hPa 0,0 l/m 0 min 0 min 0 W/m 6,4 km/h (2 Bft) 95,74 %
14.11.2020 22:20 12,5 C 11,7 C 10,6 C 89 % 1012,9 hPa 0,0 l/m 0 min 0 min 0 W/m 3,2 km/h (1 Bft) 95,74 %
14.11.2020 22:22 12,5 C 11,7 C 10,6 C 89 % 1012,9 hPa 0,0 l/m 0 min 0 min 0 W/m 3,2 km/h (1 Bft) 95,65 %
14.11.2020 22:24 12,5 C 11,7 C 10,6 C 89 % 1013,0 hPa 0,0 l/m 0 min 0 min 0 W/m 6,4 km/h (2 Bft) 95,74 %
14.11.2020 22:26 12,5 C 11,7 C 10,6 C 89 % 1012,9 hPa 0,0 l/m 0 min 0 min 0 W/m 3,2 km/h (1 Bft) 93,62 %
14.11.2020 22:28 12,4 C 11,7 C 10,6 C 89 % 1012,9 hPa 0,0 l/m 0 min 0 min 0 W/m 0,0 km/h (0 Bft) 95,74 %
14.11.2020 22:30 12,4 C 11,7 C 10,6 C 89 % 1012,9 hPa 0,0 l/m 0 min 0 min 0 W/m 0,0 km/h (0 Bft) 95,74 %
14.11.2020 22:32 12,4 C 11,7 C 10,6 C 89 % 1012,9 hPa 0,0 l/m 0 min 0 min 0 W/m 3,2 km/h (1 Bft) 93,62 %
14.11.2020 22:34 12,4 C 11,7 C 10,6 C 89 % 1012,8 hPa 0,0 l/m 0 min 0 min 0 W/m 0,0 km/h (0 Bft) 95,65 %
14.11.2020 22:36 12,4 C 11,7 C 10,6 C 89 % 1012,8 hPa 0,0 l/m 0 min 0 min 0 W/m 6,4 km/h (2 Bft) 95,74 %
14.11.2020 22:38 12,4 C 11,7 C 10,6 C 89 % 1012,8 hPa 0,0 l/m 0 min 0 min 0 W/m 0,0 km/h (0 Bft) 97,87 %
14.11.2020 22:40 12,3 C 11,7 C 10,6 C 89 % 1012,8 hPa 0,0 l/m 0 min 0 min 0 W/m 3,2 km/h (1 Bft) 95,74 %
14.11.2020 22:42 12,3 C 11,7 C 10,6 C 89 % 1012,8 hPa 0,0 l/m 0 min 0 min 0 W/m 3,2 km/h (1 Bft) 100,00 %
14.11.2020 22:44 12,3 C 11,7 C 10,6 C 89 % 1012,8 hPa 0,0 l/m 0 min 0 min 0 W/m 12,9 km/h (3 Bft) 97,87 %
14.11.2020 22:46 12,3 C 11,7 C 10,6 C 89 % 1012,7 hPa 0,0 l/m 0 min 0 min 0 W/m 16,1 km/h (3 Bft) 97,83 %
14.11.2020 22:48 12,3 C 11,7 C 10,6 C 89 % 1012,8 hPa 0,0 l/m 0 min 0 min 0 W/m 19,3 km/h (3 Bft) 97,87 %
14.11.2020 22:50 12,3 C 11,7 C 10,6 C 89 % 1012,8 hPa 0,0 l/m 0 min 0 min 0 W/m 19,3 km/h (3 Bft) 97,87 %
14.11.2020 22:52 12,3 C 11,7 C 10,6 C 89 % 1012,7 hPa 0,0 l/m 0 min 0 min 0 W/m 6,4 km/h (2 Bft) 97,87 %
14.11.2020 22:54 12,3 C 11,7 C 10,6 C 89 % 1012,7 hPa 0,0 l/m 0 min 0 min 0 W/m 12,9 km/h (3 Bft) 97,87 %
14.11.2020 22:56 12,3 C 11,7 C 10,6 C 89 % 1012,6 hPa 0,0 l/m 0 min 0 min 0 W/m 12,9 km/h (3 Bft) 97,83 %
14.11.2020 22:58 12,3 C 11,7 C 10,6 C 89 % 1012,6 hPa 0,0 l/m 0 min 0 min 0 W/m 19,3 km/h (3 Bft) 97,87 %
14.11.2020 23:00 12,3 C 11,7 C 10,6 C 89 % 1012,7 hPa 0,0 l/m 0 min 0 min 0 W/m 19,3 km/h (3 Bft) 97,87 %
14.11.2020 23:02 12,3 C 11,7 C 10,6 C 89 % 1012,6 hPa 0,0 l/m 0 min 0 min 0 W/m 6,4 km/h (2 Bft) 97,87 %
14.11.2020 23:04 12,3 C 11,7 C 10,6 C 89 % 1012,6 hPa 0,0 l/m 0 min 0 min 0 W/m 12,9 km/h (3 Bft) 97,87 %
14.11.2020 23:06 12,3 C 11,7 C 10,6 C 89 % 1012,7 hPa 0,0 l/m 0 min 0 min 0 W/m 6,4 km/h (2 Bft) 95,74 %
14.11.2020 23:08 12,3 C 11,7 C 10,6 C 89 % 1012,7 hPa 0,0 l/m 0 min 0 min 0 W/m 6,4 km/h (2 Bft) 97,87 %
14.11.2020 23:10 12,3 C 11,7 C 10,6 C 89 % 1012,7 hPa 0,0 l/m 0 min 0 min 0 W/m 3,2 km/h (1 Bft) 97,83 %
14.11.2020 23:12 12,3 C 11,7 C 10,6 C 89 % 1012,7 hPa 0,0 l/m 0 min 0 min 0 W/m 12,9 km/h (3 Bft) 97,87 %
14.11.2020 23:14 12,3 C 11,7 C 10,6 C 89 % 1012,7 hPa 0,0 l/m 0 min 0 min 0 W/m 12,9 km/h (3 Bft) 100,00 %
14.11.2020 23:16 12,3 C 11,7 C 10,6 C 89 % 1012,7 hPa 0,0 l/m 0 min 0 min 0 W/m 16,1 km/h (3 Bft) 100,00 %
14.11.2020 23:18 12,3 C 11,7 C 10,6 C 89 % 1012,7 hPa 0,0 l/m 0 min 0 min 0 W/m 6,4 km/h (2 Bft) 100,00 %
14.11.2020 23:20 12,3 C 11,7 C 10,6 C 89 % 1012,6 hPa 0,0 l/m 0 min 0 min 0 W/m 3,2 km/h (1 Bft) 97,83 %
14.11.2020 23:22 12,3 C 11,7 C 10,6 C 89 % 1012,6 hPa 0,0 l/m 0 min 0 min 0 W/m 6,4 km/h (2 Bft) 100,00 %
14.11.2020 23:24 12,3 C 11,7 C 10,6 C 89 % 1012,6 hPa 0,0 l/m 0 min 0 min 0 W/m 25,7 km/h (4 Bft) 100,00 %
14.11.2020 23:26 12,3 C 11,7 C 10,6 C 89 % 1012,5 hPa 0,0 l/m 0 min 0 min 0 W/m 19,3 km/h (3 Bft) 63,83 %
14.11.2020 23:28 12,3 C 11,7 C 10,6 C 89 % 1012,6 hPa 0,0 l/m 0 min 0 min 0 W/m 12,9 km/h (3 Bft) 92,86 %
14.11.2020 23:30 12,3 C 11,7 C 10,6 C 89 % 1012,5 hPa 0,0 l/m 0 min 0 min 0 W/m 3,2 km/h (1 Bft) 97,87 %
14.11.2020 23:32 12,3 C 11,7 C 10,6 C 89 % 1012,5 hPa 0,0 l/m 0 min 0 min 0 W/m 6,4 km/h (2 Bft) 100,00 %
14.11.2020 23:34 12,3 C 11,7 C 10,6 C 89 % 1012,5 hPa 0,0 l/m 0 min 0 min 0 W/m 12,9 km/h (3 Bft) 100,00 %
14.11.2020 23:36 12,3 C 11,7 C 10,6 C 89 % 1012,4 hPa 0,0 l/m 0 min 0 min 0 W/m 3,2 km/h (1 Bft) 100,00 %
14.11.2020 23:38 12,3 C 11,7 C 10,6 C 89 % 1012,4 hPa 0,0 l/m 0 min 0 min 0 W/m 3,2 km/h (1 Bft) 100,00 %
14.11.2020 23:40 12,3 C 11,7 C 10,6 C 89 % 1012,3 hPa 0,0 l/m 0 min 0 min 0 W/m 0,0 km/h (0 Bft) 100,00 %
14.11.2020 23:42 12,3 C 11,7 C 10,6 C 89 % 1012,3 hPa 0,0 l/m 0 min 0 min 0 W/m 6,4 km/h (2 Bft) 100,00 %
14.11.2020 23:44 12,2 C 11,7 C 10,6 C 89 % 1012,3 hPa 0,0 l/m 0 min 0 min 0 W/m 3,2 km/h (1 Bft) 97,87 %
14.11.2020 23:46 12,2 C 11,7 C 10,6 C 89 % 1012,3 hPa 0,0 l/m 0 min 0 min 0 W/m 3,2 km/h (1 Bft) 100,00 %
14.11.2020 23:48 12,2 C 11,7 C 10,6 C 89 % 1012,3 hPa 0,0 l/m 0 min 0 min 0 W/m 3,2 km/h (1 Bft) 100,00 %
14.11.2020 23:50 12,2 C 11,7 C 10,6 C 89 % 1012,3 hPa 0,0 l/m 0 min 0 min 0 W/m 3,2 km/h (1 Bft) 100,00 %
14.11.2020 23:52 12,2 C 11,7 C 10,6 C 89 % 1012,3 hPa 0,0 l/m 0 min 0 min 0 W/m 3,2 km/h (1 Bft) 100,00 %
14.11.2020 23:54 12,1 C 11,7 C 10,6 C 90 % 1012,3 hPa 0,0 l/m 0 min 0 min 0 W/m 0,0 km/h (0 Bft) 100,00 %
14.11.2020 23:56 12,1 C 11,7 C 10,6 C 90 % 1012,3 hPa 0,0 l/m 0 min 0 min 0 W/m 0,0 km/h (0 Bft) 100,00 %
14.11.2020 23:58 12,1 C 11,7 C 10,6 C 90 % 1012,3 hPa 0,0 l/m 0 min 0 min 0 W/m 0,0 km/h (0 Bft) 100,00 %
_ Min-Zeit 08:26 02:34 02:40 15:06 23:40 - - - - 01:32 23:26
Minimum _ 12,1 C 11,7 C 10,6 C 75 % 1012,3 hPa - - - - 0,0 km/h (0 Bft) 63,83 %
_ Max-Zeit 14:58 14:36 14:12 04:44 00:54 00:00 12:08 00:00 13:22 12:36 00:00
Maximum _ 16,9 C 20,0 C 19,5 C 95 % 1017,7 hPa 0,0 l/m 4 min 0 min 334 W/m 38,6 km/h
S-SO (5 Bft)
100,00 %
Durchschnitt _ 13,6 C 13,2 C 12,2 C 88 % 1015,6 hPa #0,0 l/m #3:06 h #0 min. 121 W/m 10,0 km/h (2 Bft) 97,55 %
© 2020 W. Hausmann